GEFSSE_prec_meanprecacc_204.txt.gz
Total_Precipitation_Accumulation
1.84 1.75 2.47 2.52 2.14 1.75 1.61 1.59 1.44 1.34 1.33 1.26 1.01 0.92 0.89 0.88 0.76 0.64 0.55 0.47 0.48 0.47 0.49 0.48 0.52 0.58 0.62 0.61 0.54 0.69 0.75 0.64 0.55 0.54 0.67 0.78 0.81 0.90 1.03 1.22 1.61 1.90 1.52
1.52 1.47 2.33 2.50 2.13 1.73 1.50 1.50 1.47 1.35 1.35 1.21 1.07 0.94 0.91 0.86 0.77 0.65 0.51 0.46 0.48 0.47 0.46 0.47 0.54 0.54 0.58 0.67 0.63 0.73 0.71 0.56 0.47 0.53 0.83 1.06 0.98 0.95 1.02 1.13 1.53 1.79 1.49
1.22 1.24 1.79 2.30 2.11 1.73 1.49 1.44 1.45 1.37 1.39 1.29 1.19 1.03 0.93 0.84 0.77 0.67 0.53 0.54 0.55 0.52 0.48 0.49 0.60 0.59 0.60 0.76 0.73 0.72 0.68 0.54 0.50 0.68 1.18 1.90 1.49 1.02 1.00 1.08 1.30 1.21 1.25
1.14 1.17 1.36 1.90 1.82 1.52 1.35 1.35 1.39 1.33 1.41 1.34 1.14 0.98 0.83 0.81 0.82 0.71 0.63 0.72 0.59 0.50 0.46 0.50 0.61 0.64 0.67 0.79 0.77 0.72 0.67 0.65 0.72 0.87 1.35 1.86 1.88 1.29 1.18 1.28 1.28 1.16 1.23
1.14 1.17 1.52 1.88 1.75 1.55 1.38 1.43 1.46 1.38 1.39 1.24 0.99 0.82 0.77 0.82 0.85 0.84 0.84 0.81 0.58 0.47 0.42 0.47 0.58 0.65 0.69 0.77 0.73 0.68 0.65 0.72 0.95 1.07 1.35 1.69 2.02 1.61 1.29 1.33 1.33 1.24 1.33
1.12 1.15 1.42 1.74 1.68 1.54 1.39 1.43 1.46 1.47 1.44 1.33 1.06 0.88 0.86 0.88 0.86 0.84 0.90 0.76 0.65 0.57 0.49 0.52 0.60 0.66 0.67 0.72 0.74 0.70 0.73 0.83 0.93 1.14 1.41 1.75 1.91 1.54 1.24 1.27 1.30 1.40 1.38
0.99 0.99 1.13 1.52 1.56 1.45 1.37 1.51 1.56 1.56 1.53 1.46 1.22 1.03 0.93 0.88 0.85 0.85 0.92 0.79 0.73 0.66 0.63 0.66 0.70 0.70 0.69 0.74 0.72 0.71 0.70 0.72 0.77 1.01 1.25 1.73 1.70 1.37 1.20 1.21 1.22 1.28 1.32
1.11 1.00 0.95 1.26 1.35 1.32 1.33 1.42 1.47 1.48 1.43 1.38 1.20 1.03 0.95 0.91 0.87 0.94 1.00 0.90 0.83 0.73 0.67 0.70 0.73 0.78 0.80 0.79 0.77 0.74 0.69 0.61 0.62 0.83 1.09 1.48 1.56 1.43 1.26 1.24 1.34 1.28 1.31
1.26 1.17 1.03 1.04 1.11 1.30 1.39 1.37 1.31 1.23 1.22 1.18 1.07 1.01 0.95 0.92 0.86 0.90 0.93 0.88 0.88 0.87 0.82 0.76 0.80 0.87 0.83 0.83 0.82 0.76 0.70 0.61 0.67 0.83 0.85 1.29 1.46 1.41 1.24 1.21 1.35 1.41 1.40
1.44 1.24 1.04 0.96 1.03 1.08 1.14 1.23 1.29 1.27 1.22 1.19 1.05 0.95 0.92 0.86 0.77 0.80 0.76 0.75 0.83 0.95 1.03 0.98 0.95 0.92 0.91 0.86 0.82 0.76 0.72 0.58 0.67 0.74 0.92 1.09 1.36 1.41 1.28 1.11 1.10 1.12 1.18
1.21 1.10 1.08 1.04 1.09 1.13 1.06 1.07 1.25 1.32 1.31 1.16 1.06 0.99 0.89 0.70 0.62 0.68 0.65 0.78 0.90 1.08 1.17 1.20 1.17 1.10 0.99 0.82 0.77 0.75 0.63 0.55 0.68 0.76 0.97 1.08 1.34 1.43 1.33 1.11 1.01 0.92 0.97
0.88 0.88 0.91 0.94 1.05 1.08 0.99 1.22 1.43 1.29 1.15 0.92 0.92 0.84 0.81 0.75 0.72 0.60 0.65 0.85 1.00 1.07 1.10 1.24 1.33 1.15 0.88 0.63 0.63 0.61 0.48 0.47 0.53 0.61 0.79 1.13 1.36 1.42 1.35 1.16 0.99 0.87 0.88
0.77 0.76 0.70 0.75 0.84 0.94 1.08 1.35 1.61 1.65 1.43 1.22 1.01 0.93 0.89 0.78 0.70 0.66 0.66 0.72 0.80 0.85 0.80 0.88 0.91 0.75 0.65 0.61 0.61 0.49 0.43 0.46 0.50 0.59 0.81 1.15 1.37 1.44 1.31 1.18 1.09 0.99 0.93
0.62 0.70 0.56 0.50 0.65 0.78 0.90 1.03 1.29 1.37 1.30 1.15 0.97 0.88 0.93 0.88 0.77 0.74 0.71 0.76 0.78 0.78 0.86 0.88 0.92 0.83 0.67 0.61 0.61 0.61 0.55 0.51 0.57 0.69 0.87 1.05 1.35 1.51 1.42 1.31 1.22 1.11 1.04
0.61 0.68 0.62 0.52 0.52 0.57 0.64 0.72 0.85 1.03 1.14 1.11 1.03 0.86 0.85 0.84 0.80 0.82 0.76 0.81 0.73 0.72 0.81 0.88 0.87 0.88 0.80 0.68 0.65 0.64 0.71 0.66 0.63 0.67 0.85 1.03 1.37 1.64 1.71 1.53 1.34 1.22 1.19
0.54 0.67 0.67 0.57 0.52 0.54 0.53 0.54 0.54 0.70 0.87 1.01 1.00 0.88 0.89 0.89 0.84 0.88 0.85 0.85 0.82 0.76 0.80 0.96 0.89 0.94 0.93 0.87 0.72 0.68 0.72 0.69 0.65 0.68 0.78 1.02 1.20 1.35 1.63 1.79 1.62 1.44 1.28
0.49 0.55 0.61 0.57 0.59 0.62 0.63 0.64 0.54 0.58 0.66 0.80 0.92 0.90 0.95 0.90 0.81 0.85 0.87 0.84 0.84 0.84 0.84 0.89 0.92 0.99 0.91 0.86 0.81 0.76 0.73 0.69 0.61 0.68 0.70 0.79 0.80 0.93 1.20 1.48 1.66 1.58 1.48
0.55 0.58 0.61 0.61 0.66 0.72 0.75 0.78 0.73 0.78 0.81 0.83 0.97 0.94 0.89 0.92 0.88 0.88 0.93 0.94 0.98 1.01 0.98 0.99 1.02 1.05 1.02 1.01 0.99 0.95 0.78 0.78 0.69 0.69 0.69 0.70 0.76 0.73 0.84 0.97 1.21 1.41 1.58
0.51 0.53 0.56 0.64 0.67 0.68 0.74 0.86 1.00 1.04 1.05 1.02 1.06 1.02 0.91 0.89 0.94 1.05 1.09 1.14 1.12 1.14 1.16 1.11 1.13 1.07 1.07 1.09 1.02 1.00 0.89 0.86 0.83 0.70 0.77 0.79 0.79 0.75 0.78 0.69 0.75 0.86 1.12
0.43 0.46 0.50 0.57 0.74 0.87 0.92 0.93 1.08 1.14 1.22 1.31 1.36 1.24 1.10 1.12 1.24 1.39 1.47 1.41 1.40 1.41 1.40 1.35 1.43 1.32 1.14 1.14 1.07 1.02 0.91 0.81 0.88 0.87 0.85 0.84 0.88 0.86 0.79 0.69 0.65 0.55 0.65
0.29 0.35 0.41 0.47 0.64 0.76 0.84 0.94 1.12 1.29 1.46 1.62 1.74 1.64 1.50 1.46 1.62 1.74 1.67 1.75 1.79 1.66 1.66 1.70 1.76 1.70 1.45 1.32 1.39 1.29 1.02 0.79 0.86 0.85 0.83 0.87 0.93 1.04 1.07 0.93 0.79 0.70 0.66
0.18 0.22 0.28 0.36 0.46 0.58 0.74 0.96 1.17 1.46 1.55 1.64 1.78 1.82 1.76 1.69 1.85 1.89 1.97 2.04 2.08 2.07 2.03 1.92 2.00 2.09 1.82 1.61 1.72 2.02 1.61 1.20 0.86 0.70 0.79 0.84 0.94 1.18 1.24 1.07 0.87 0.80 0.79
0.13 0.15 0.21 0.34 0.47 0.67 0.91 1.22 1.51 1.74 1.81 1.86 1.82 1.89 1.97 2.02 2.08 2.11 2.16 2.23 2.23 2.09 2.08 2.17 2.26 2.60 2.41 2.05 1.87 2.13 1.94 1.61 1.31 0.89 0.83 0.89 0.97 1.14 1.27 1.28 1.16 1.09 0.99
0.13 0.17 0.28 0.46 0.65 0.91 1.25 1.60 1.83 2.06 2.15 2.00 1.98 2.02 2.03 1.98 2.01 2.12 2.14 2.13 2.10 2.04 2.11 2.17 2.20 2.58 2.77 2.48 2.16 1.83 1.62 1.59 1.65 1.34 0.99 0.95 1.03 1.06 1.17 1.24 1.19 1.25 1.22
0.26 0.33 0.49 0.74 1.03 1.31 1.54 1.72 1.93 2.06 2.08 2.05 2.02 2.01 1.94 1.91 1.88 1.91 1.93 2.02 2.05 2.09 2.15 2.30 2.41 2.63 2.66 2.66 2.49 2.30 2.09 1.80 1.46 1.50 1.43 1.18 1.14 1.06 1.15 1.27 1.31 1.39 1.39
0.43 0.56 0.74 0.92 1.20 1.38 1.49 1.61 1.80 1.95 2.00 2.01 2.00 1.99 1.98 1.96 1.86 1.79 1.76 1.82 1.94 2.11 2.17 2.25 2.39 2.62 2.72 2.80 2.73 2.48 2.39 2.22 1.93 1.80 1.55 1.40 1.40 1.21 1.18 1.21 1.25 1.38 1.51

GEFSSE_prec_meanprecacc_210.txt.gz
Total_Precipitation_Accumulation
1.89 1.79 2.52 2.56 2.18 1.78 1.64 1.62 1.48 1.37 1.37 1.28 1.03 0.95 0.92 0.89 0.77 0.65 0.55 0.48 0.49 0.48 0.50 0.50 0.53 0.61 0.65 0.63 0.56 0.72 0.78 0.67 0.60 0.58 0.70 0.82 0.85 0.97 1.11 1.29 1.67 1.97 1.61
1.55 1.49 2.37 2.53 2.17 1.75 1.52 1.52 1.49 1.38 1.38 1.23 1.09 0.97 0.95 0.87 0.78 0.66 0.52 0.48 0.50 0.48 0.47 0.49 0.55 0.57 0.61 0.69 0.66 0.76 0.74 0.60 0.51 0.56 0.87 1.09 1.03 1.01 1.10 1.19 1.59 1.84 1.57
1.24 1.26 1.84 2.34 2.13 1.75 1.51 1.45 1.46 1.39 1.41 1.31 1.20 1.05 0.96 0.86 0.79 0.69 0.56 0.57 0.58 0.54 0.50 0.50 0.62 0.62 0.62 0.79 0.75 0.74 0.71 0.60 0.56 0.73 1.21 1.91 1.51 1.07 1.07 1.14 1.34 1.25 1.30
1.16 1.18 1.39 1.94 1.86 1.54 1.36 1.36 1.40 1.34 1.43 1.36 1.16 1.00 0.85 0.83 0.84 0.75 0.67 0.76 0.62 0.52 0.47 0.53 0.64 0.67 0.69 0.81 0.78 0.74 0.69 0.70 0.79 0.93 1.37 1.86 1.89 1.34 1.22 1.31 1.32 1.19 1.26
1.16 1.19 1.54 1.92 1.77 1.57 1.39 1.44 1.47 1.39 1.40 1.25 1.00 0.83 0.78 0.84 0.87 0.87 0.86 0.85 0.63 0.51 0.44 0.49 0.61 0.67 0.70 0.78 0.74 0.70 0.66 0.76 0.99 1.10 1.37 1.70 2.03 1.65 1.31 1.36 1.37 1.28 1.38
1.16 1.18 1.45 1.77 1.70 1.55 1.41 1.44 1.47 1.48 1.45 1.34 1.07 0.89 0.87 0.90 0.87 0.86 0.91 0.78 0.68 0.59 0.51 0.54 0.61 0.68 0.68 0.73 0.75 0.72 0.75 0.86 0.95 1.16 1.42 1.76 1.92 1.58 1.27 1.31 1.35 1.46 1.44
1.02 1.02 1.15 1.54 1.58 1.47 1.39 1.53 1.58 1.57 1.56 1.49 1.23 1.04 0.95 0.89 0.86 0.87 0.93 0.80 0.74 0.67 0.64 0.67 0.71 0.71 0.70 0.75 0.74 0.72 0.72 0.75 0.79 1.02 1.26 1.75 1.72 1.41 1.25 1.25 1.26 1.33 1.38
1.14 1.02 0.97 1.28 1.37 1.34 1.35 1.43 1.48 1.49 1.45 1.41 1.21 1.04 0.97 0.92 0.88 0.96 1.01 0.91 0.84 0.74 0.69 0.71 0.74 0.80 0.81 0.81 0.79 0.76 0.72 0.64 0.64 0.84 1.09 1.49 1.59 1.46 1.29 1.28 1.39 1.32 1.35
1.27 1.18 1.05 1.06 1.14 1.32 1.42 1.39 1.32 1.24 1.23 1.20 1.08 1.02 0.96 0.93 0.88 0.91 0.94 0.89 0.89 0.88 0.84 0.79 0.82 0.89 0.84 0.85 0.84 0.79 0.74 0.65 0.69 0.84 0.86 1.31 1.50 1.44 1.27 1.26 1.40 1.43 1.42
1.45 1.25 1.05 0.98 1.04 1.09 1.15 1.24 1.29 1.28 1.23 1.20 1.06 0.96 0.92 0.87 0.78 0.81 0.77 0.76 0.85 0.96 1.05 1.00 0.97 0.94 0.93 0.89 0.85 0.79 0.75 0.61 0.69 0.75 0.93 1.12 1.41 1.47 1.34 1.15 1.13 1.16 1.21
1.23 1.10 1.09 1.05 1.09 1.13 1.06 1.08 1.26 1.32 1.31 1.17 1.07 1.00 0.90 0.70 0.62 0.68 0.66 0.80 0.91 1.09 1.18 1.22 1.18 1.12 1.02 0.86 0.81 0.78 0.65 0.58 0.70 0.78 0.99 1.14 1.42 1.51 1.38 1.14 1.05 0.96 0.99
0.89 0.88 0.92 0.95 1.05 1.09 0.99 1.22 1.43 1.29 1.15 0.92 0.93 0.84 0.82 0.75 0.72 0.60 0.65 0.86 1.01 1.09 1.12 1.26 1.35 1.18 0.92 0.66 0.65 0.63 0.50 0.50 0.56 0.64 0.83 1.20 1.45 1.49 1.40 1.20 1.02 0.90 0.90
0.77 0.76 0.71 0.76 0.85 0.95 1.09 1.35 1.61 1.66 1.43 1.22 1.01 0.93 0.90 0.79 0.70 0.66 0.66 0.74 0.82 0.87 0.82 0.89 0.92 0.78 0.68 0.62 0.62 0.51 0.46 0.48 0.52 0.61 0.86 1.21 1.44 1.50 1.36 1.22 1.13 1.02 0.95
0.62 0.70 0.56 0.50 0.65 0.78 0.90 1.03 1.29 1.37 1.31 1.16 0.97 0.88 0.94 0.88 0.78 0.75 0.73 0.79 0.80 0.79 0.86 0.88 0.93 0.86 0.69 0.62 0.62 0.62 0.58 0.54 0.59 0.72 0.90 1.09 1.41 1.57 1.46 1.34 1.26 1.14 1.07
0.61 0.68 0.62 0.52 0.52 0.58 0.64 0.72 0.85 1.03 1.14 1.11 1.04 0.87 0.86 0.85 0.82 0.85 0.79 0.83 0.75 0.73 0.82 0.88 0.89 0.91 0.82 0.70 0.66 0.65 0.72 0.67 0.65 0.71 0.88 1.07 1.42 1.69 1.76 1.57 1.38 1.28 1.23
0.54 0.67 0.67 0.57 0.53 0.54 0.53 0.54 0.54 0.70 0.87 1.01 1.00 0.88 0.90 0.91 0.87 0.92 0.87 0.86 0.84 0.77 0.80 0.97 0.90 0.95 0.94 0.88 0.73 0.69 0.72 0.69 0.66 0.69 0.80 1.04 1.22 1.38 1.67 1.84 1.67 1.48 1.32
0.50 0.56 0.61 0.58 0.59 0.62 0.63 0.64 0.54 0.58 0.66 0.80 0.92 0.90 0.95 0.90 0.82 0.86 0.87 0.85 0.84 0.85 0.84 0.90 0.92 0.99 0.92 0.86 0.82 0.77 0.74 0.70 0.62 0.68 0.70 0.80 0.81 0.96 1.24 1.54 1.70 1.63 1.54
0.56 0.59 0.62 0.62 0.67 0.72 0.76 0.78 0.73 0.78 0.81 0.83 0.97 0.94 0.89 0.92 0.89 0.89 0.93 0.94 0.98 1.02 0.99 1.00 1.03 1.06 1.02 1.01 0.99 0.96 0.79 0.79 0.70 0.70 0.69 0.71 0.77 0.74 0.86 1.01 1.25 1.45 1.63
0.52 0.55 0.57 0.65 0.67 0.68 0.75 0.87 1.00 1.04 1.05 1.02 1.06 1.02 0.91 0.90 0.95 1.06 1.09 1.14 1.12 1.14 1.16 1.12 1.13 1.07 1.08 1.09 1.02 1.00 0.90 0.88 0.83 0.71 0.78 0.80 0.80 0.76 0.79 0.70 0.76 0.87 1.14
0.43 0.46 0.51 0.58 0.76 0.88 0.93 0.94 1.08 1.14 1.22 1.31 1.36 1.24 1.10 1.12 1.25 1.40 1.48 1.42 1.41 1.42 1.42 1.36 1.44 1.33 1.15 1.15 1.08 1.02 0.92 0.83 0.89 0.87 0.85 0.85 0.89 0.86 0.80 0.70 0.66 0.55 0.65
0.29 0.35 0.41 0.48 0.64 0.77 0.85 0.95 1.12 1.29 1.47 1.62 1.74 1.64 1.50 1.46 1.63 1.75 1.69 1.77 1.79 1.67 1.67 1.72 1.77 1.71 1.45 1.32 1.40 1.30 1.03 0.80 0.87 0.86 0.83 0.88 0.94 1.04 1.07 0.94 0.79 0.71 0.66
0.18 0.22 0.28 0.36 0.46 0.59 0.74 0.97 1.17 1.46 1.55 1.64 1.78 1.82 1.76 1.70 1.85 1.89 1.98 2.05 2.09 2.08 2.04 1.93 2.00 2.10 1.83 1.62 1.74 2.03 1.63 1.22 0.88 0.71 0.80 0.84 0.94 1.18 1.24 1.07 0.87 0.80 0.79
0.13 0.15 0.21 0.34 0.47 0.68 0.91 1.23 1.51 1.74 1.82 1.87 1.82 1.89 1.97 2.02 2.08 2.11 2.17 2.23 2.24 2.10 2.09 2.18 2.27 2.60 2.41 2.06 1.88 2.14 1.95 1.62 1.32 0.91 0.84 0.89 0.97 1.14 1.27 1.28 1.16 1.09 0.99
0.13 0.18 0.29 0.46 0.65 0.91 1.25 1.60 1.84 2.06 2.16 2.00 1.98 2.02 2.03 1.98 2.01 2.13 2.14 2.14 2.11 2.05 2.12 2.18 2.21 2.59 2.77 2.48 2.16 1.83 1.62 1.59 1.66 1.36 1.00 0.95 1.03 1.06 1.17 1.24 1.19 1.25 1.22
0.27 0.34 0.50 0.74 1.04 1.31 1.54 1.72 1.94 2.07 2.09 2.06 2.02 2.01 1.94 1.91 1.88 1.91 1.93 2.02 2.05 2.10 2.15 2.31 2.41 2.63 2.66 2.67 2.49 2.31 2.10 1.81 1.47 1.50 1.43 1.18 1.14 1.06 1.15 1.27 1.31 1.39 1.40
0.44 0.57 0.74 0.92 1.21 1.39 1.50 1.62 1.80 1.95 2.00 2.01 2.00 1.99 1.98 1.96 1.86 1.79 1.76 1.83 1.95 2.11 2.17 2.25 2.39 2.62 2.72 2.80 2.74 2.48 2.39 2.22 1.93 1.80 1.55 1.40 1.40 1.21 1.18 1.21 1.25 1.38 1.51

GEFSSE_prec_meanprecacc_216.txt.gz
Total_Precipitation_Accumulation
1.91 1.83 2.63 2.68 2.27 1.82 1.69 1.68 1.53 1.40 1.39 1.31 1.06 0.98 0.95 0.93 0.79 0.68 0.60 0.52 0.52 0.52 0.54 0.53 0.56 0.64 0.68 0.67 0.60 0.76 0.81 0.71 0.63 0.62 0.75 0.88 0.93 1.04 1.21 1.39 1.76 2.03 1.70
1.57 1.53 2.46 2.64 2.25 1.81 1.57 1.56 1.53 1.40 1.39 1.25 1.12 1.00 0.97 0.91 0.80 0.68 0.54 0.52 0.53 0.52 0.50 0.52 0.59 0.60 0.65 0.72 0.70 0.79 0.77 0.63 0.54 0.58 0.89 1.14 1.10 1.09 1.20 1.29 1.68 1.94 1.70
1.26 1.30 1.92 2.43 2.20 1.80 1.55 1.47 1.48 1.41 1.44 1.33 1.24 1.10 0.99 0.90 0.82 0.71 0.60 0.62 0.61 0.56 0.51 0.52 0.64 0.66 0.67 0.82 0.77 0.76 0.72 0.62 0.59 0.77 1.23 1.92 1.55 1.14 1.15 1.22 1.45 1.37 1.41
1.18 1.22 1.45 2.01 1.91 1.58 1.40 1.39 1.43 1.38 1.47 1.38 1.20 1.03 0.89 0.87 0.87 0.78 0.72 0.80 0.65 0.55 0.49 0.54 0.66 0.72 0.73 0.83 0.80 0.75 0.70 0.73 0.83 0.97 1.39 1.88 1.91 1.38 1.29 1.37 1.38 1.26 1.35
1.18 1.21 1.58 1.98 1.81 1.59 1.43 1.47 1.51 1.44 1.44 1.29 1.04 0.86 0.82 0.88 0.92 0.92 0.91 0.87 0.65 0.55 0.48 0.52 0.64 0.71 0.73 0.81 0.76 0.71 0.68 0.80 1.03 1.12 1.38 1.71 2.06 1.69 1.35 1.40 1.42 1.35 1.46
1.17 1.19 1.48 1.84 1.74 1.58 1.43 1.48 1.51 1.52 1.49 1.39 1.11 0.92 0.90 0.93 0.91 0.89 0.95 0.81 0.70 0.63 0.55 0.57 0.64 0.71 0.70 0.75 0.77 0.73 0.78 0.89 0.97 1.17 1.43 1.77 1.94 1.63 1.32 1.36 1.42 1.55 1.53
1.04 1.04 1.19 1.59 1.62 1.50 1.41 1.56 1.61 1.61 1.60 1.54 1.26 1.07 0.98 0.92 0.89 0.91 0.97 0.83 0.77 0.71 0.67 0.70 0.73 0.74 0.73 0.78 0.76 0.75 0.75 0.77 0.80 1.03 1.27 1.76 1.75 1.49 1.31 1.32 1.32 1.39 1.45
1.16 1.05 1.02 1.34 1.43 1.38 1.39 1.46 1.51 1.51 1.48 1.44 1.23 1.07 1.00 0.94 0.91 0.99 1.05 0.94 0.87 0.77 0.71 0.73 0.77 0.83 0.84 0.83 0.83 0.80 0.76 0.65 0.65 0.84 1.09 1.50 1.63 1.53 1.34 1.34 1.45 1.38 1.39
1.29 1.22 1.10 1.12 1.21 1.40 1.47 1.43 1.34 1.26 1.25 1.22 1.10 1.04 0.98 0.95 0.90 0.94 0.99 0.92 0.91 0.90 0.86 0.81 0.84 0.91 0.87 0.88 0.88 0.83 0.78 0.66 0.70 0.84 0.87 1.33 1.54 1.50 1.33 1.33 1.46 1.49 1.46
1.48 1.29 1.09 1.01 1.08 1.13 1.20 1.29 1.33 1.31 1.25 1.21 1.08 0.98 0.95 0.89 0.80 0.84 0.80 0.78 0.86 0.97 1.06 1.01 1.00 0.97 0.97 0.93 0.89 0.83 0.78 0.62 0.69 0.75 0.94 1.16 1.47 1.54 1.40 1.20 1.18 1.20 1.24
1.25 1.13 1.12 1.08 1.12 1.16 1.09 1.12 1.30 1.35 1.33 1.18 1.08 1.02 0.91 0.72 0.63 0.69 0.68 0.82 0.94 1.11 1.21 1.24 1.21 1.15 1.06 0.91 0.86 0.80 0.66 0.58 0.70 0.79 1.02 1.19 1.49 1.57 1.43 1.17 1.08 0.98 1.02
0.89 0.89 0.94 0.98 1.08 1.11 1.01 1.24 1.45 1.31 1.16 0.93 0.93 0.85 0.82 0.76 0.73 0.61 0.67 0.89 1.04 1.11 1.15 1.29 1.37 1.21 0.94 0.68 0.67 0.64 0.51 0.50 0.57 0.66 0.89 1.29 1.52 1.56 1.44 1.24 1.06 0.93 0.93
0.77 0.77 0.73 0.79 0.87 0.97 1.11 1.36 1.62 1.66 1.44 1.22 1.01 0.93 0.90 0.79 0.70 0.66 0.66 0.74 0.84 0.89 0.84 0.92 0.95 0.80 0.70 0.63 0.63 0.51 0.47 0.50 0.53 0.63 0.94 1.29 1.52 1.57 1.41 1.27 1.16 1.06 0.99
0.62 0.70 0.57 0.51 0.67 0.81 0.92 1.04 1.30 1.38 1.31 1.16 0.98 0.89 0.94 0.88 0.78 0.76 0.74 0.79 0.80 0.79 0.88 0.90 0.94 0.87 0.71 0.64 0.63 0.63 0.59 0.55 0.60 0.75 0.96 1.17 1.48 1.64 1.53 1.41 1.31 1.19 1.13
0.61 0.68 0.63 0.53 0.53 0.59 0.65 0.73 0.86 1.03 1.14 1.12 1.05 0.88 0.87 0.86 0.83 0.85 0.80 0.83 0.75 0.73 0.83 0.90 0.91 0.94 0.84 0.72 0.67 0.66 0.73 0.67 0.65 0.72 0.90 1.11 1.48 1.78 1.83 1.65 1.45 1.35 1.31
0.55 0.68 0.68 0.58 0.53 0.54 0.54 0.55 0.55 0.71 0.87 1.02 1.01 0.89 0.91 0.92 0.87 0.92 0.87 0.87 0.84 0.78 0.82 0.99 0.94 0.98 0.96 0.88 0.73 0.69 0.72 0.69 0.66 0.69 0.80 1.05 1.25 1.44 1.74 1.91 1.73 1.56 1.41
0.51 0.56 0.63 0.60 0.60 0.63 0.64 0.64 0.54 0.58 0.66 0.80 0.92 0.91 0.95 0.90 0.83 0.86 0.87 0.85 0.85 0.86 0.86 0.91 0.96 1.02 0.92 0.87 0.82 0.77 0.74 0.70 0.62 0.69 0.71 0.81 0.83 0.99 1.30 1.61 1.78 1.73 1.64
0.58 0.60 0.65 0.64 0.69 0.72 0.76 0.78 0.73 0.78 0.81 0.83 0.97 0.94 0.89 0.92 0.89 0.89 0.93 0.94 0.99 1.03 1.00 1.01 1.06 1.08 1.03 1.01 1.00 0.96 0.79 0.80 0.71 0.70 0.69 0.72 0.78 0.75 0.89 1.06 1.32 1.53 1.70
0.53 0.56 0.60 0.69 0.70 0.70 0.75 0.87 1.00 1.04 1.05 1.02 1.06 1.02 0.92 0.90 0.95 1.06 1.09 1.15 1.13 1.15 1.17 1.13 1.15 1.08 1.09 1.10 1.03 1.01 0.90 0.89 0.84 0.72 0.78 0.80 0.80 0.76 0.80 0.71 0.77 0.89 1.15
0.44 0.48 0.52 0.60 0.78 0.90 0.94 0.94 1.08 1.14 1.22 1.31 1.36 1.24 1.10 1.12 1.25 1.40 1.48 1.42 1.42 1.42 1.42 1.37 1.45 1.34 1.16 1.16 1.09 1.03 0.92 0.83 0.89 0.87 0.85 0.85 0.89 0.86 0.80 0.70 0.66 0.55 0.66
0.30 0.36 0.43 0.49 0.66 0.79 0.85 0.95 1.13 1.30 1.47 1.62 1.74 1.64 1.50 1.46 1.63 1.75 1.69 1.77 1.80 1.67 1.68 1.72 1.79 1.73 1.47 1.33 1.41 1.31 1.04 0.81 0.87 0.86 0.83 0.88 0.94 1.05 1.07 0.94 0.79 0.71 0.67
0.19 0.23 0.29 0.37 0.47 0.59 0.75 0.98 1.18 1.47 1.56 1.64 1.78 1.82 1.76 1.70 1.85 1.89 1.98 2.06 2.10 2.09 2.05 1.94 2.02 2.11 1.85 1.63 1.75 2.04 1.64 1.23 0.88 0.71 0.80 0.85 0.95 1.18 1.25 1.07 0.87 0.80 0.79
0.14 0.15 0.22 0.34 0.47 0.68 0.92 1.23 1.52 1.74 1.82 1.87 1.82 1.89 1.97 2.02 2.08 2.11 2.17 2.24 2.25 2.11 2.10 2.19 2.28 2.61 2.42 2.07 1.89 2.15 1.95 1.62 1.32 0.91 0.84 0.89 0.98 1.15 1.27 1.28 1.16 1.09 0.99
0.14 0.18 0.29 0.47 0.66 0.92 1.26 1.61 1.84 2.06 2.16 2.01 1.99 2.02 2.03 1.99 2.02 2.13 2.14 2.14 2.11 2.06 2.14 2.19 2.22 2.60 2.78 2.49 2.17 1.83 1.62 1.60 1.66 1.36 1.00 0.96 1.04 1.06 1.17 1.25 1.19 1.25 1.23
0.28 0.34 0.50 0.75 1.04 1.32 1.55 1.74 1.94 2.07 2.09 2.07 2.02 2.01 1.95 1.92 1.88 1.92 1.94 2.03 2.06 2.10 2.16 2.33 2.43 2.64 2.66 2.67 2.49 2.31 2.10 1.81 1.47 1.51 1.43 1.18 1.15 1.07 1.15 1.28 1.31 1.39 1.40
0.44 0.57 0.75 0.92 1.21 1.39 1.51 1.62 1.81 1.96 2.01 2.02 2.00 2.00 1.99 1.97 1.87 1.80 1.77 1.83 1.95 2.12 2.18 2.27 2.41 2.63 2.72 2.81 2.74 2.48 2.39 2.23 1.93 1.80 1.55 1.41 1.40 1.21 1.18 1.21 1.25 1.38 1.52

GEFSSE_prec_meanprecacc_222.txt.gz
Total_Precipitation_Accumulation
1.93 1.88 2.73 2.78 2.36 1.89 1.76 1.75 1.58 1.44 1.42 1.35 1.10 1.04 1.01 0.97 0.81 0.70 0.61 0.54 0.56 0.56 0.59 0.59 0.60 0.67 0.73 0.71 0.63 0.80 0.85 0.74 0.66 0.65 0.79 0.93 0.99 1.12 1.29 1.48 1.83 2.11 1.79
1.59 1.58 2.57 2.74 2.33 1.86 1.61 1.59 1.56 1.42 1.42 1.28 1.15 1.06 1.03 0.95 0.83 0.70 0.57 0.54 0.57 0.56 0.53 0.56 0.64 0.64 0.70 0.76 0.73 0.82 0.80 0.65 0.57 0.61 0.92 1.18 1.15 1.15 1.28 1.37 1.75 2.02 1.78
1.28 1.34 2.00 2.53 2.28 1.86 1.58 1.49 1.50 1.43 1.47 1.36 1.28 1.15 1.05 0.95 0.85 0.73 0.63 0.65 0.65 0.60 0.54 0.56 0.67 0.70 0.71 0.86 0.80 0.77 0.73 0.64 0.61 0.80 1.26 1.97 1.59 1.20 1.24 1.31 1.53 1.46 1.50
1.20 1.26 1.50 2.09 1.97 1.62 1.43 1.43 1.48 1.42 1.50 1.42 1.25 1.08 0.95 0.94 0.93 0.83 0.77 0.86 0.69 0.59 0.53 0.58 0.70 0.76 0.75 0.85 0.81 0.76 0.72 0.75 0.85 0.98 1.41 1.91 1.95 1.43 1.36 1.46 1.47 1.38 1.47
1.21 1.24 1.63 2.06 1.87 1.63 1.45 1.49 1.55 1.48 1.48 1.34 1.09 0.89 0.88 0.96 0.98 0.97 0.97 0.94 0.72 0.61 0.53 0.56 0.67 0.73 0.75 0.83 0.78 0.73 0.70 0.81 1.04 1.14 1.40 1.74 2.11 1.75 1.41 1.47 1.50 1.45 1.58
1.19 1.21 1.51 1.91 1.79 1.61 1.46 1.50 1.54 1.55 1.54 1.44 1.15 0.94 0.94 0.99 0.97 0.95 1.01 0.87 0.77 0.69 0.59 0.60 0.66 0.73 0.73 0.77 0.80 0.76 0.79 0.89 0.97 1.18 1.44 1.80 1.99 1.68 1.37 1.43 1.50 1.63 1.63
1.07 1.06 1.22 1.64 1.67 1.53 1.45 1.60 1.66 1.65 1.66 1.61 1.32 1.11 1.03 1.00 0.97 0.98 1.03 0.88 0.82 0.76 0.72 0.74 0.76 0.76 0.75 0.80 0.79 0.78 0.76 0.77 0.81 1.04 1.28 1.78 1.80 1.54 1.37 1.39 1.40 1.47 1.55
1.19 1.07 1.04 1.40 1.49 1.43 1.44 1.53 1.58 1.58 1.55 1.52 1.30 1.12 1.05 1.00 0.97 1.06 1.11 0.99 0.91 0.81 0.76 0.77 0.81 0.86 0.86 0.86 0.85 0.82 0.77 0.66 0.65 0.85 1.11 1.53 1.68 1.59 1.40 1.40 1.51 1.45 1.49
1.33 1.24 1.13 1.18 1.28 1.49 1.55 1.51 1.44 1.35 1.33 1.29 1.15 1.09 1.02 0.98 0.93 0.99 1.04 0.97 0.95 0.94 0.90 0.84 0.88 0.95 0.89 0.91 0.91 0.86 0.81 0.67 0.70 0.85 0.88 1.36 1.60 1.58 1.38 1.37 1.51 1.54 1.54
1.54 1.37 1.15 1.07 1.14 1.20 1.31 1.40 1.45 1.41 1.33 1.26 1.12 1.01 0.97 0.92 0.82 0.87 0.83 0.82 0.89 1.00 1.09 1.04 1.03 1.01 1.00 0.96 0.92 0.86 0.80 0.63 0.70 0.76 0.97 1.19 1.53 1.63 1.47 1.26 1.23 1.25 1.31
1.28 1.18 1.19 1.16 1.18 1.21 1.17 1.23 1.42 1.46 1.42 1.23 1.11 1.04 0.94 0.74 0.65 0.71 0.71 0.86 0.99 1.16 1.25 1.28 1.24 1.19 1.08 0.93 0.89 0.82 0.68 0.59 0.72 0.81 1.06 1.24 1.56 1.65 1.48 1.22 1.13 1.02 1.07
0.91 0.91 0.97 1.03 1.14 1.15 1.05 1.29 1.50 1.35 1.20 0.96 0.94 0.85 0.83 0.77 0.74 0.62 0.68 0.93 1.09 1.16 1.19 1.32 1.40 1.23 0.96 0.70 0.68 0.64 0.52 0.52 0.58 0.69 0.94 1.36 1.61 1.66 1.52 1.29 1.10 0.96 0.97
0.78 0.78 0.76 0.84 0.95 1.02 1.15 1.39 1.64 1.69 1.47 1.24 1.02 0.93 0.90 0.79 0.71 0.67 0.67 0.76 0.86 0.92 0.87 0.94 0.97 0.82 0.71 0.64 0.64 0.52 0.48 0.51 0.54 0.66 1.01 1.39 1.62 1.67 1.51 1.34 1.21 1.09 1.03
0.63 0.72 0.60 0.54 0.72 0.87 0.98 1.08 1.33 1.40 1.33 1.18 0.98 0.89 0.94 0.89 0.78 0.76 0.74 0.80 0.81 0.81 0.90 0.92 0.95 0.89 0.73 0.65 0.64 0.64 0.60 0.57 0.61 0.77 1.03 1.28 1.60 1.75 1.63 1.52 1.40 1.25 1.17
0.62 0.69 0.64 0.55 0.56 0.64 0.70 0.77 0.89 1.05 1.16 1.13 1.06 0.88 0.87 0.87 0.83 0.86 0.80 0.84 0.75 0.74 0.85 0.92 0.93 0.95 0.86 0.73 0.67 0.67 0.73 0.68 0.65 0.74 0.94 1.18 1.57 1.89 1.95 1.77 1.57 1.44 1.39
0.56 0.69 0.69 0.60 0.58 0.61 0.58 0.59 0.58 0.72 0.87 1.02 1.01 0.90 0.91 0.92 0.88 0.93 0.88 0.88 0.85 0.78 0.83 1.01 0.96 1.00 0.97 0.90 0.74 0.70 0.73 0.70 0.66 0.70 0.82 1.08 1.28 1.50 1.81 2.01 1.84 1.66 1.48
0.53 0.59 0.65 0.64 0.66 0.69 0.67 0.66 0.55 0.59 0.67 0.81 0.93 0.91 0.96 0.91 0.83 0.87 0.88 0.86 0.85 0.87 0.88 0.94 0.98 1.04 0.94 0.88 0.83 0.78 0.75 0.71 0.63 0.70 0.72 0.83 0.86 1.04 1.36 1.67 1.86 1.80 1.71
0.60 0.64 0.69 0.71 0.75 0.77 0.79 0.80 0.74 0.78 0.82 0.84 0.97 0.95 0.90 0.92 0.89 0.89 0.94 0.95 1.00 1.04 1.02 1.04 1.09 1.10 1.05 1.02 1.01 0.98 0.82 0.81 0.72 0.72 0.71 0.74 0.81 0.78 0.93 1.10 1.35 1.57 1.75
0.55 0.58 0.62 0.72 0.75 0.77 0.81 0.89 1.02 1.05 1.05 1.02 1.06 1.02 0.92 0.90 0.95 1.06 1.10 1.15 1.14 1.16 1.19 1.15 1.18 1.10 1.11 1.13 1.05 1.03 0.93 0.91 0.85 0.72 0.78 0.81 0.83 0.78 0.82 0.73 0.78 0.90 1.18
0.45 0.48 0.53 0.62 0.79 0.92 0.95 0.96 1.10 1.15 1.22 1.31 1.36 1.24 1.11 1.13 1.25 1.40 1.49 1.43 1.43 1.44 1.44 1.39 1.47 1.35 1.19 1.20 1.11 1.05 0.94 0.84 0.90 0.88 0.86 0.85 0.90 0.87 0.81 0.71 0.66 0.56 0.66
0.30 0.37 0.44 0.50 0.67 0.80 0.86 0.96 1.13 1.31 1.48 1.63 1.74 1.64 1.50 1.46 1.63 1.75 1.69 1.78 1.81 1.69 1.69 1.74 1.80 1.74 1.50 1.36 1.44 1.33 1.05 0.82 0.87 0.86 0.84 0.88 0.94 1.05 1.07 0.94 0.80 0.71 0.67
0.20 0.24 0.30 0.37 0.48 0.60 0.76 0.98 1.18 1.47 1.56 1.65 1.78 1.82 1.76 1.70 1.85 1.89 1.98 2.07 2.11 2.10 2.05 1.95 2.03 2.13 1.87 1.66 1.78 2.06 1.65 1.24 0.89 0.72 0.80 0.85 0.95 1.18 1.25 1.07 0.88 0.81 0.79
0.14 0.16 0.23 0.35 0.48 0.69 0.92 1.24 1.52 1.75 1.82 1.87 1.83 1.89 1.98 2.02 2.08 2.12 2.17 2.25 2.26 2.12 2.12 2.21 2.31 2.65 2.46 2.11 1.92 2.16 1.96 1.63 1.33 0.92 0.84 0.89 0.98 1.15 1.27 1.29 1.17 1.09 1.00
0.14 0.19 0.30 0.48 0.67 0.93 1.26 1.61 1.85 2.07 2.17 2.02 1.99 2.02 2.03 1.99 2.02 2.14 2.15 2.15 2.13 2.08 2.16 2.22 2.26 2.64 2.83 2.53 2.20 1.84 1.63 1.60 1.67 1.37 1.01 0.96 1.05 1.06 1.17 1.25 1.20 1.26 1.24
0.28 0.35 0.51 0.75 1.05 1.32 1.56 1.74 1.95 2.07 2.09 2.07 2.03 2.02 1.95 1.92 1.89 1.92 1.94 2.03 2.07 2.11 2.17 2.34 2.46 2.69 2.72 2.71 2.52 2.32 2.10 1.81 1.47 1.51 1.44 1.19 1.15 1.07 1.15 1.28 1.32 1.40 1.42
0.44 0.58 0.76 0.93 1.22 1.40 1.52 1.63 1.81 1.96 2.01 2.02 2.00 2.00 2.00 1.97 1.87 1.81 1.77 1.84 1.96 2.13 2.19 2.29 2.43 2.66 2.78 2.86 2.77 2.50 2.40 2.23 1.94 1.81 1.56 1.41 1.41 1.21 1.18 1.21 1.25 1.39 1.54

GEFSSE_prec_meanprecacc_228.txt.gz
Total_Precipitation_Accumulation
2.01 1.93 2.78 2.84 2.41 1.92 1.78 1.78 1.61 1.46 1.45 1.40 1.20 1.09 1.04 0.99 0.84 0.73 0.63 0.56 0.59 0.60 0.62 0.62 0.63 0.69 0.76 0.74 0.66 0.82 0.87 0.77 0.69 0.68 0.83 0.97 1.05 1.20 1.35 1.54 1.90 2.19 1.89
1.64 1.63 2.62 2.79 2.38 1.90 1.64 1.61 1.59 1.45 1.45 1.34 1.27 1.13 1.09 0.98 0.85 0.73 0.60 0.56 0.59 0.60 0.56 0.60 0.67 0.67 0.73 0.79 0.75 0.84 0.82 0.67 0.60 0.67 0.98 1.24 1.20 1.21 1.32 1.42 1.80 2.09 1.84
1.32 1.39 2.05 2.59 2.34 1.89 1.61 1.52 1.54 1.46 1.50 1.43 1.36 1.20 1.11 0.99 0.89 0.76 0.66 0.68 0.68 0.64 0.58 0.60 0.71 0.73 0.73 0.88 0.82 0.79 0.75 0.66 0.65 0.87 1.37 2.08 1.67 1.24 1.28 1.35 1.58 1.52 1.56
1.22 1.31 1.55 2.13 2.02 1.65 1.45 1.45 1.52 1.46 1.55 1.49 1.29 1.14 1.02 1.01 0.98 0.88 0.82 0.90 0.73 0.64 0.61 0.64 0.74 0.80 0.77 0.87 0.83 0.77 0.73 0.77 0.88 1.05 1.50 2.01 2.05 1.50 1.42 1.53 1.53 1.45 1.53
1.22 1.28 1.67 2.09 1.91 1.65 1.46 1.51 1.57 1.53 1.54 1.40 1.15 0.97 0.96 1.04 1.05 1.03 1.01 0.99 0.77 0.67 0.61 0.61 0.70 0.76 0.78 0.85 0.81 0.75 0.71 0.82 1.06 1.17 1.47 1.82 2.19 1.83 1.48 1.54 1.56 1.51 1.64
1.21 1.24 1.54 1.95 1.84 1.64 1.47 1.53 1.57 1.60 1.59 1.50 1.22 1.01 1.00 1.05 1.04 1.01 1.06 0.92 0.83 0.76 0.64 0.64 0.69 0.77 0.77 0.81 0.83 0.78 0.80 0.90 1.00 1.22 1.51 1.88 2.07 1.76 1.43 1.49 1.56 1.68 1.69
1.09 1.09 1.25 1.67 1.71 1.57 1.48 1.63 1.70 1.70 1.72 1.67 1.38 1.17 1.08 1.04 1.02 1.04 1.09 0.94 0.88 0.84 0.78 0.79 0.80 0.80 0.78 0.83 0.81 0.78 0.77 0.78 0.84 1.09 1.34 1.85 1.87 1.60 1.42 1.44 1.46 1.53 1.61
1.21 1.10 1.06 1.43 1.53 1.47 1.47 1.58 1.65 1.65 1.62 1.58 1.36 1.18 1.10 1.04 1.00 1.09 1.16 1.03 0.95 0.86 0.81 0.83 0.86 0.89 0.88 0.88 0.86 0.83 0.78 0.67 0.68 0.88 1.16 1.59 1.73 1.63 1.45 1.47 1.59 1.52 1.55
1.36 1.29 1.16 1.21 1.32 1.52 1.60 1.58 1.51 1.42 1.41 1.37 1.22 1.14 1.06 1.01 0.96 1.01 1.07 1.00 0.99 0.97 0.93 0.88 0.93 0.98 0.92 0.93 0.93 0.87 0.82 0.69 0.74 0.88 0.91 1.40 1.64 1.62 1.42 1.41 1.58 1.64 1.62
1.57 1.42 1.21 1.13 1.19 1.26 1.36 1.46 1.51 1.46 1.39 1.33 1.18 1.06 1.01 0.96 0.86 0.90 0.86 0.85 0.93 1.05 1.13 1.08 1.06 1.03 1.02 0.98 0.94 0.87 0.81 0.66 0.74 0.78 0.99 1.23 1.58 1.68 1.51 1.31 1.29 1.33 1.39
1.30 1.20 1.24 1.23 1.25 1.27 1.22 1.26 1.46 1.50 1.45 1.27 1.15 1.07 0.98 0.78 0.69 0.74 0.73 0.88 1.02 1.21 1.29 1.30 1.25 1.20 1.09 0.95 0.91 0.84 0.70 0.65 0.76 0.84 1.08 1.27 1.62 1.71 1.53 1.26 1.18 1.08 1.13
0.93 0.93 1.00 1.09 1.24 1.24 1.11 1.33 1.54 1.38 1.22 0.98 0.97 0.87 0.87 0.81 0.77 0.64 0.70 0.95 1.12 1.21 1.23 1.34 1.42 1.25 0.98 0.72 0.70 0.66 0.56 0.56 0.61 0.71 0.96 1.40 1.67 1.73 1.58 1.34 1.15 1.02 1.04
0.80 0.79 0.78 0.87 1.00 1.08 1.20 1.43 1.69 1.73 1.50 1.26 1.04 0.95 0.93 0.81 0.72 0.67 0.68 0.77 0.88 0.96 0.90 0.96 0.99 0.85 0.75 0.68 0.67 0.55 0.52 0.53 0.57 0.67 1.03 1.44 1.69 1.75 1.60 1.42 1.28 1.17 1.12
0.66 0.75 0.62 0.57 0.76 0.92 1.02 1.13 1.37 1.44 1.36 1.19 1.00 0.90 0.95 0.90 0.79 0.76 0.75 0.81 0.83 0.84 0.94 0.95 0.99 0.93 0.76 0.67 0.65 0.66 0.62 0.58 0.63 0.79 1.06 1.35 1.69 1.85 1.75 1.61 1.49 1.34 1.26
0.66 0.72 0.66 0.57 0.58 0.67 0.73 0.81 0.94 1.11 1.19 1.16 1.08 0.89 0.87 0.87 0.83 0.87 0.82 0.85 0.77 0.76 0.87 0.94 0.96 0.97 0.87 0.74 0.69 0.70 0.75 0.69 0.66 0.75 0.96 1.23 1.64 1.97 2.06 1.87 1.67 1.56 1.48
0.58 0.70 0.71 0.62 0.60 0.63 0.63 0.63 0.64 0.79 0.93 1.05 1.02 0.90 0.91 0.92 0.88 0.93 0.89 0.89 0.87 0.81 0.85 1.04 0.99 1.02 0.99 0.91 0.76 0.74 0.77 0.73 0.69 0.72 0.84 1.10 1.31 1.54 1.87 2.10 1.93 1.74 1.56
0.54 0.60 0.67 0.66 0.69 0.72 0.70 0.69 0.58 0.62 0.69 0.83 0.94 0.92 0.96 0.91 0.83 0.87 0.89 0.87 0.87 0.89 0.91 0.99 1.00 1.05 0.95 0.90 0.85 0.80 0.77 0.73 0.64 0.71 0.73 0.84 0.87 1.06 1.38 1.71 1.90 1.86 1.78
0.62 0.65 0.70 0.73 0.78 0.80 0.81 0.81 0.75 0.79 0.82 0.85 0.98 0.95 0.91 0.93 0.90 0.90 0.95 0.96 1.00 1.05 1.04 1.06 1.11 1.11 1.06 1.04 1.02 1.00 0.83 0.82 0.72 0.72 0.72 0.74 0.82 0.79 0.94 1.11 1.37 1.59 1.79
0.57 0.59 0.63 0.73 0.76 0.78 0.82 0.90 1.02 1.06 1.06 1.03 1.07 1.03 0.93 0.91 0.95 1.06 1.10 1.16 1.14 1.17 1.20 1.17 1.20 1.11 1.13 1.15 1.06 1.04 0.94 0.92 0.86 0.73 0.79 0.82 0.84 0.79 0.82 0.73 0.79 0.91 1.19
0.46 0.49 0.55 0.63 0.80 0.92 0.96 0.96 1.10 1.16 1.23 1.31 1.36 1.24 1.11 1.13 1.26 1.41 1.49 1.43 1.43 1.45 1.45 1.41 1.48 1.37 1.21 1.23 1.14 1.07 0.95 0.86 0.91 0.89 0.87 0.86 0.91 0.87 0.81 0.71 0.67 0.57 0.67
0.31 0.37 0.44 0.50 0.68 0.81 0.87 0.97 1.15 1.32 1.48 1.63 1.74 1.64 1.50 1.46 1.63 1.76 1.70 1.79 1.82 1.70 1.71 1.77 1.83 1.78 1.54 1.41 1.48 1.37 1.08 0.84 0.89 0.88 0.85 0.89 0.95 1.05 1.08 0.95 0.80 0.72 0.67
0.20 0.24 0.30 0.38 0.48 0.61 0.77 1.00 1.19 1.48 1.57 1.65 1.78 1.82 1.76 1.70 1.86 1.90 1.99 2.09 2.13 2.12 2.08 1.97 2.06 2.17 1.91 1.69 1.81 2.09 1.68 1.27 0.91 0.72 0.81 0.86 0.96 1.19 1.26 1.08 0.89 0.81 0.79
0.14 0.16 0.23 0.35 0.48 0.69 0.93 1.25 1.53 1.76 1.83 1.88 1.84 1.89 1.98 2.02 2.09 2.12 2.18 2.26 2.29 2.14 2.14 2.23 2.34 2.68 2.50 2.15 1.94 2.18 1.99 1.67 1.35 0.93 0.85 0.90 0.99 1.16 1.28 1.30 1.18 1.10 1.01
0.14 0.19 0.30 0.48 0.67 0.94 1.27 1.62 1.86 2.09 2.19 2.03 2.00 2.03 2.04 2.00 2.03 2.15 2.16 2.16 2.15 2.10 2.17 2.23 2.27 2.66 2.86 2.58 2.24 1.87 1.65 1.62 1.69 1.39 1.01 0.96 1.05 1.06 1.18 1.26 1.21 1.26 1.25
0.28 0.35 0.51 0.76 1.05 1.33 1.56 1.75 1.95 2.08 2.10 2.08 2.04 2.03 1.96 1.93 1.90 1.93 1.95 2.04 2.08 2.13 2.18 2.35 2.47 2.71 2.75 2.74 2.55 2.35 2.12 1.82 1.48 1.52 1.45 1.20 1.16 1.07 1.16 1.29 1.33 1.40 1.43
0.44 0.58 0.76 0.93 1.22 1.41 1.52 1.63 1.82 1.97 2.02 2.03 2.01 2.01 2.01 1.98 1.87 1.81 1.78 1.85 1.98 2.14 2.20 2.29 2.44 2.67 2.79 2.87 2.79 2.52 2.42 2.25 1.95 1.82 1.57 1.42 1.42 1.22 1.19 1.23 1.28 1.40 1.55

GEFSSE_prec_meanprecacc_234.txt.gz
Total_Precipitation_Accumulation
2.08 1.99 2.86 2.89 2.43 1.94 1.80 1.80 1.63 1.47 1.46 1.42 1.21 1.12 1.07 1.01 0.86 0.74 0.65 0.60 0.61 0.61 0.65 0.64 0.65 0.71 0.77 0.76 0.68 0.85 0.91 0.81 0.73 0.71 0.86 1.00 1.09 1.24 1.41 1.62 1.95 2.22 1.97
1.70 1.69 2.69 2.84 2.41 1.92 1.65 1.63 1.61 1.47 1.48 1.37 1.30 1.16 1.11 1.00 0.87 0.75 0.62 0.59 0.60 0.61 0.59 0.63 0.68 0.68 0.73 0.80 0.77 0.86 0.85 0.72 0.62 0.69 1.01 1.27 1.24 1.26 1.39 1.47 1.83 2.12 1.90
1.35 1.42 2.09 2.63 2.36 1.91 1.62 1.54 1.56 1.48 1.54 1.47 1.40 1.25 1.15 1.01 0.90 0.78 0.67 0.71 0.71 0.66 0.61 0.61 0.71 0.73 0.73 0.88 0.83 0.81 0.77 0.69 0.68 0.90 1.39 2.10 1.69 1.31 1.37 1.41 1.62 1.56 1.61
1.28 1.35 1.57 2.15 2.05 1.68 1.47 1.47 1.55 1.49 1.60 1.53 1.35 1.18 1.05 1.03 0.99 0.90 0.84 0.94 0.75 0.65 0.63 0.66 0.75 0.81 0.78 0.87 0.83 0.78 0.74 0.79 0.93 1.09 1.52 2.02 2.06 1.56 1.49 1.59 1.58 1.48 1.56
1.25 1.30 1.69 2.12 1.93 1.68 1.48 1.52 1.61 1.58 1.59 1.44 1.22 1.00 1.00 1.07 1.07 1.05 1.05 1.03 0.79 0.68 0.62 0.63 0.72 0.78 0.79 0.86 0.82 0.75 0.72 0.84 1.09 1.20 1.48 1.83 2.21 1.90 1.55 1.60 1.61 1.55 1.68
1.23 1.25 1.57 1.99 1.87 1.67 1.49 1.55 1.61 1.65 1.63 1.55 1.28 1.04 1.03 1.08 1.07 1.05 1.10 0.96 0.86 0.78 0.66 0.66 0.71 0.78 0.79 0.83 0.84 0.79 0.81 0.91 1.01 1.24 1.53 1.90 2.11 1.83 1.49 1.54 1.61 1.73 1.75
1.12 1.11 1.27 1.71 1.75 1.61 1.51 1.66 1.73 1.73 1.75 1.72 1.44 1.21 1.12 1.07 1.06 1.09 1.13 0.97 0.92 0.86 0.81 0.80 0.81 0.81 0.80 0.84 0.82 0.80 0.78 0.79 0.85 1.10 1.35 1.86 1.91 1.67 1.49 1.51 1.52 1.59 1.67
1.23 1.12 1.08 1.46 1.57 1.50 1.51 1.60 1.66 1.67 1.65 1.63 1.42 1.23 1.13 1.06 1.03 1.12 1.19 1.06 0.98 0.89 0.83 0.84 0.87 0.90 0.90 0.90 0.88 0.84 0.79 0.68 0.69 0.89 1.16 1.61 1.79 1.70 1.53 1.55 1.66 1.60 1.63
1.38 1.31 1.18 1.22 1.34 1.56 1.63 1.60 1.54 1.46 1.45 1.41 1.27 1.16 1.08 1.03 0.98 1.04 1.10 1.03 1.01 0.99 0.95 0.89 0.94 1.00 0.93 0.95 0.94 0.88 0.83 0.71 0.75 0.89 0.92 1.42 1.71 1.68 1.47 1.48 1.67 1.73 1.70
1.61 1.46 1.24 1.15 1.21 1.27 1.39 1.50 1.55 1.51 1.44 1.37 1.21 1.08 1.03 0.98 0.89 0.93 0.89 0.88 0.95 1.06 1.14 1.10 1.08 1.05 1.04 1.00 0.95 0.89 0.83 0.67 0.75 0.79 1.00 1.26 1.64 1.73 1.55 1.36 1.34 1.39 1.45
1.33 1.24 1.27 1.26 1.28 1.30 1.24 1.31 1.51 1.55 1.50 1.31 1.19 1.10 0.99 0.79 0.70 0.76 0.75 0.92 1.05 1.23 1.31 1.33 1.28 1.23 1.12 0.97 0.93 0.85 0.71 0.66 0.77 0.84 1.09 1.33 1.69 1.79 1.58 1.31 1.23 1.14 1.21
0.97 0.95 1.02 1.11 1.27 1.30 1.17 1.36 1.59 1.42 1.25 1.00 1.00 0.89 0.88 0.81 0.77 0.64 0.71 0.97 1.15 1.23 1.25 1.37 1.44 1.27 0.99 0.73 0.71 0.67 0.56 0.56 0.61 0.71 1.00 1.47 1.75 1.81 1.64 1.41 1.22 1.12 1.19
0.83 0.81 0.81 0.89 1.00 1.10 1.24 1.48 1.74 1.77 1.53 1.28 1.06 0.97 0.94 0.82 0.73 0.68 0.68 0.78 0.90 0.97 0.92 0.97 1.00 0.86 0.76 0.69 0.67 0.56 0.53 0.53 0.57 0.68 1.08 1.52 1.76 1.83 1.67 1.49 1.35 1.26 1.21
0.67 0.77 0.66 0.59 0.77 0.94 1.05 1.17 1.41 1.47 1.39 1.22 1.01 0.91 0.97 0.91 0.80 0.77 0.76 0.82 0.84 0.85 0.95 0.96 1.00 0.94 0.77 0.68 0.66 0.66 0.63 0.58 0.63 0.80 1.10 1.41 1.75 1.92 1.82 1.68 1.56 1.42 1.34
0.67 0.75 0.69 0.59 0.59 0.68 0.75 0.84 0.97 1.13 1.21 1.17 1.10 0.90 0.89 0.89 0.84 0.88 0.83 0.86 0.77 0.77 0.88 0.96 0.98 1.00 0.90 0.76 0.72 0.71 0.76 0.69 0.67 0.76 0.98 1.26 1.68 2.02 2.12 1.93 1.73 1.62 1.55
0.59 0.72 0.73 0.64 0.61 0.64 0.64 0.65 0.66 0.81 0.96 1.07 1.04 0.91 0.92 0.93 0.88 0.94 0.90 0.90 0.87 0.81 0.85 1.05 1.00 1.03 1.01 0.93 0.77 0.76 0.77 0.73 0.69 0.72 0.85 1.11 1.32 1.57 1.92 2.16 2.00 1.80 1.62
0.55 0.61 0.68 0.68 0.70 0.73 0.71 0.70 0.59 0.63 0.71 0.83 0.95 0.93 0.97 0.92 0.84 0.88 0.90 0.87 0.88 0.89 0.92 1.00 1.01 1.05 0.97 0.91 0.87 0.82 0.78 0.73 0.64 0.71 0.73 0.84 0.87 1.07 1.41 1.76 1.96 1.91 1.83
0.64 0.66 0.72 0.75 0.79 0.81 0.82 0.82 0.75 0.79 0.83 0.85 0.99 0.96 0.91 0.94 0.91 0.91 0.95 0.96 1.01 1.05 1.04 1.07 1.12 1.11 1.06 1.06 1.03 1.01 0.83 0.82 0.73 0.72 0.72 0.74 0.82 0.79 0.94 1.12 1.39 1.62 1.83
0.59 0.60 0.64 0.74 0.78 0.79 0.83 0.91 1.03 1.06 1.06 1.03 1.07 1.03 0.94 0.93 0.97 1.07 1.10 1.17 1.14 1.17 1.20 1.17 1.21 1.12 1.13 1.16 1.07 1.05 0.94 0.92 0.86 0.73 0.79 0.82 0.84 0.79 0.82 0.74 0.80 0.92 1.21
0.47 0.52 0.57 0.64 0.81 0.93 0.96 0.97 1.11 1.17 1.24 1.32 1.37 1.25 1.11 1.13 1.26 1.41 1.49 1.44 1.43 1.45 1.46 1.42 1.49 1.37 1.21 1.24 1.15 1.08 0.96 0.87 0.92 0.90 0.87 0.86 0.91 0.88 0.81 0.71 0.68 0.57 0.68
0.32 0.39 0.45 0.51 0.69 0.82 0.88 0.98 1.16 1.33 1.50 1.64 1.75 1.65 1.51 1.47 1.64 1.76 1.70 1.79 1.82 1.70 1.72 1.78 1.84 1.78 1.54 1.41 1.49 1.38 1.09 0.85 0.91 0.89 0.86 0.89 0.95 1.05 1.08 0.95 0.81 0.72 0.67
0.21 0.26 0.31 0.39 0.49 0.61 0.78 1.01 1.20 1.49 1.58 1.66 1.79 1.83 1.77 1.71 1.87 1.90 1.99 2.09 2.14 2.14 2.09 1.98 2.07 2.18 1.92 1.69 1.81 2.11 1.70 1.28 0.93 0.74 0.81 0.86 0.96 1.19 1.27 1.09 0.89 0.82 0.80
0.16 0.17 0.24 0.36 0.49 0.70 0.94 1.26 1.55 1.78 1.86 1.90 1.85 1.90 1.98 2.03 2.10 2.13 2.19 2.27 2.30 2.15 2.16 2.24 2.36 2.70 2.52 2.15 1.95 2.19 2.01 1.68 1.37 0.94 0.85 0.90 0.99 1.16 1.29 1.31 1.19 1.11 1.02
0.15 0.20 0.31 0.49 0.68 0.95 1.29 1.63 1.87 2.10 2.21 2.05 2.03 2.06 2.06 2.01 2.04 2.16 2.17 2.17 2.16 2.10 2.17 2.24 2.29 2.68 2.87 2.59 2.25 1.88 1.66 1.62 1.69 1.39 1.02 0.97 1.05 1.06 1.18 1.26 1.21 1.27 1.26
0.28 0.36 0.52 0.77 1.06 1.35 1.58 1.76 1.96 2.09 2.11 2.09 2.05 2.04 1.97 1.94 1.90 1.94 1.96 2.06 2.09 2.13 2.19 2.35 2.48 2.72 2.75 2.74 2.56 2.36 2.13 1.82 1.48 1.53 1.46 1.20 1.16 1.07 1.17 1.30 1.35 1.42 1.44
0.45 0.59 0.77 0.95 1.24 1.42 1.54 1.65 1.82 1.98 2.02 2.04 2.02 2.02 2.01 1.98 1.88 1.82 1.80 1.87 1.99 2.14 2.20 2.30 2.44 2.68 2.80 2.88 2.80 2.52 2.43 2.26 1.95 1.82 1.57 1.42 1.42 1.22 1.19 1.24 1.28 1.41 1.56

GEFSSE_prec_meanprecacc_240.txt.gz
Total_Precipitation_Accumulation
2.14 2.04 2.94 2.96 2.47 1.96 1.83 1.83 1.65 1.50 1.50 1.46 1.26 1.16 1.11 1.06 0.89 0.76 0.67 0.61 0.63 0.63 0.68 0.67 0.67 0.73 0.80 0.79 0.71 0.87 0.94 0.84 0.76 0.74 0.87 1.03 1.12 1.27 1.46 1.70 2.03 2.27 2.01
1.76 1.75 2.78 2.92 2.44 1.95 1.69 1.67 1.64 1.51 1.53 1.41 1.35 1.21 1.16 1.04 0.89 0.76 0.63 0.61 0.63 0.64 0.63 0.66 0.70 0.69 0.75 0.83 0.80 0.90 0.90 0.76 0.65 0.71 1.02 1.29 1.27 1.29 1.43 1.53 1.90 2.16 1.95
1.40 1.46 2.16 2.71 2.42 1.96 1.67 1.59 1.60 1.53 1.59 1.51 1.44 1.29 1.19 1.06 0.95 0.80 0.70 0.75 0.75 0.70 0.65 0.64 0.73 0.75 0.75 0.91 0.87 0.86 0.83 0.75 0.71 0.92 1.41 2.11 1.71 1.34 1.41 1.46 1.70 1.63 1.66
1.30 1.36 1.61 2.22 2.11 1.72 1.53 1.52 1.61 1.57 1.67 1.59 1.39 1.23 1.10 1.09 1.05 0.95 0.90 0.99 0.79 0.69 0.66 0.68 0.76 0.82 0.79 0.90 0.87 0.82 0.79 0.84 0.98 1.11 1.53 2.03 2.08 1.60 1.54 1.65 1.65 1.55 1.62
1.26 1.32 1.74 2.20 1.99 1.73 1.54 1.58 1.67 1.66 1.67 1.50 1.27 1.07 1.06 1.13 1.14 1.12 1.12 1.07 0.82 0.71 0.65 0.65 0.74 0.79 0.81 0.88 0.84 0.79 0.76 0.88 1.13 1.22 1.49 1.84 2.23 1.95 1.59 1.65 1.68 1.62 1.74
1.25 1.29 1.62 2.05 1.95 1.74 1.56 1.62 1.68 1.73 1.70 1.60 1.34 1.11 1.10 1.14 1.14 1.11 1.15 1.02 0.90 0.81 0.69 0.68 0.74 0.81 0.82 0.85 0.87 0.81 0.83 0.93 1.02 1.24 1.54 1.92 2.13 1.88 1.55 1.61 1.70 1.82 1.82
1.16 1.16 1.32 1.76 1.82 1.68 1.58 1.72 1.79 1.81 1.84 1.78 1.50 1.28 1.19 1.14 1.12 1.15 1.18 1.04 0.97 0.91 0.84 0.83 0.84 0.85 0.83 0.88 0.84 0.81 0.80 0.81 0.85 1.11 1.36 1.89 1.94 1.72 1.57 1.60 1.60 1.68 1.75
1.27 1.16 1.11 1.51 1.66 1.61 1.59 1.66 1.73 1.75 1.75 1.75 1.52 1.31 1.21 1.14 1.09 1.17 1.24 1.11 1.02 0.91 0.86 0.87 0.90 0.94 0.93 0.91 0.89 0.86 0.82 0.69 0.69 0.89 1.17 1.64 1.84 1.76 1.60 1.62 1.73 1.68 1.72
1.45 1.36 1.20 1.26 1.41 1.64 1.71 1.67 1.61 1.55 1.58 1.61 1.38 1.25 1.15 1.09 1.02 1.08 1.14 1.07 1.04 1.02 0.99 0.93 0.98 1.03 0.96 0.96 0.96 0.91 0.87 0.72 0.75 0.89 0.93 1.45 1.79 1.75 1.54 1.55 1.75 1.82 1.80
1.64 1.50 1.26 1.19 1.24 1.29 1.42 1.55 1.61 1.58 1.55 1.54 1.32 1.17 1.09 1.03 0.93 0.98 0.94 0.94 1.01 1.11 1.20 1.15 1.13 1.09 1.08 1.02 0.97 0.91 0.85 0.68 0.75 0.79 1.01 1.30 1.72 1.81 1.61 1.42 1.42 1.48 1.54
1.36 1.27 1.30 1.30 1.30 1.31 1.26 1.33 1.54 1.59 1.56 1.38 1.27 1.16 1.04 0.82 0.71 0.78 0.79 0.98 1.12 1.28 1.36 1.37 1.31 1.26 1.15 1.00 0.95 0.86 0.71 0.66 0.77 0.85 1.12 1.41 1.79 1.87 1.65 1.36 1.30 1.24 1.31
1.00 0.96 1.05 1.13 1.28 1.31 1.18 1.38 1.61 1.44 1.28 1.04 1.05 0.93 0.90 0.83 0.79 0.66 0.74 1.03 1.20 1.27 1.28 1.39 1.47 1.29 1.00 0.74 0.72 0.67 0.57 0.56 0.61 0.72 1.07 1.58 1.86 1.91 1.72 1.47 1.30 1.25 1.31
0.86 0.83 0.82 0.90 1.01 1.11 1.25 1.49 1.76 1.80 1.55 1.32 1.10 1.00 0.97 0.85 0.75 0.69 0.69 0.79 0.91 0.98 0.93 0.98 1.00 0.86 0.76 0.70 0.68 0.56 0.53 0.53 0.57 0.69 1.16 1.62 1.86 1.93 1.75 1.58 1.51 1.43 1.36
0.70 0.80 0.67 0.60 0.77 0.94 1.05 1.18 1.43 1.49 1.41 1.25 1.04 0.95 1.00 0.94 0.82 0.79 0.76 0.82 0.84 0.85 0.95 0.96 1.00 0.94 0.77 0.69 0.67 0.66 0.63 0.58 0.63 0.81 1.16 1.49 1.83 2.01 1.90 1.76 1.67 1.56 1.49
0.70 0.78 0.71 0.61 0.62 0.69 0.76 0.86 0.98 1.15 1.23 1.20 1.13 0.94 0.93 0.92 0.87 0.89 0.84 0.86 0.78 0.77 0.88 0.96 0.99 1.00 0.91 0.77 0.72 0.71 0.76 0.70 0.67 0.76 0.99 1.30 1.74 2.10 2.19 2.00 1.80 1.69 1.64
0.62 0.75 0.75 0.67 0.64 0.67 0.65 0.66 0.67 0.83 0.98 1.10 1.08 0.97 0.97 0.97 0.92 0.96 0.91 0.91 0.88 0.81 0.86 1.06 1.02 1.04 1.02 0.94 0.78 0.76 0.78 0.73 0.70 0.73 0.85 1.12 1.36 1.62 1.97 2.22 2.06 1.86 1.68
0.58 0.64 0.71 0.71 0.73 0.75 0.72 0.71 0.60 0.64 0.73 0.87 0.98 0.97 1.01 0.95 0.87 0.91 0.91 0.88 0.88 0.90 0.93 1.01 1.02 1.07 0.99 0.92 0.88 0.82 0.78 0.74 0.65 0.71 0.73 0.85 0.88 1.09 1.45 1.81 2.03 1.99 1.90
0.65 0.69 0.75 0.78 0.81 0.82 0.82 0.82 0.76 0.81 0.88 0.91 1.03 0.99 0.94 0.97 0.93 0.92 0.95 0.97 1.01 1.05 1.04 1.08 1.13 1.12 1.07 1.07 1.05 1.02 0.84 0.83 0.73 0.73 0.72 0.75 0.82 0.80 0.96 1.14 1.43 1.68 1.90
0.60 0.63 0.67 0.77 0.80 0.81 0.84 0.91 1.03 1.08 1.10 1.08 1.12 1.06 0.96 0.95 0.98 1.07 1.10 1.17 1.14 1.17 1.21 1.18 1.21 1.12 1.13 1.16 1.10 1.08 0.96 0.93 0.87 0.74 0.80 0.82 0.84 0.79 0.82 0.74 0.81 0.95 1.25
0.49 0.53 0.58 0.65 0.82 0.94 0.97 0.97 1.11 1.18 1.26 1.35 1.39 1.28 1.14 1.16 1.28 1.42 1.50 1.44 1.43 1.45 1.46 1.42 1.49 1.38 1.22 1.25 1.15 1.11 1.00 0.89 0.93 0.90 0.87 0.86 0.91 0.88 0.81 0.71 0.68 0.58 0.70
0.33 0.40 0.46 0.52 0.70 0.82 0.88 0.98 1.16 1.34 1.52 1.67 1.77 1.66 1.53 1.48 1.65 1.78 1.71 1.79 1.83 1.71 1.72 1.78 1.84 1.79 1.57 1.43 1.49 1.39 1.11 0.86 0.92 0.90 0.86 0.89 0.95 1.05 1.08 0.95 0.81 0.72 0.68
0.22 0.26 0.32 0.39 0.49 0.62 0.78 1.01 1.21 1.50 1.60 1.68 1.80 1.84 1.78 1.72 1.88 1.92 2.01 2.10 2.15 2.14 2.09 1.99 2.09 2.19 1.94 1.70 1.82 2.11 1.71 1.30 0.94 0.75 0.82 0.86 0.96 1.19 1.27 1.09 0.90 0.82 0.80
0.17 0.19 0.26 0.38 0.50 0.71 0.95 1.26 1.55 1.79 1.87 1.92 1.86 1.91 1.99 2.04 2.11 2.14 2.19 2.27 2.30 2.16 2.16 2.25 2.37 2.72 2.53 2.16 1.95 2.20 2.01 1.68 1.38 0.96 0.86 0.91 0.99 1.16 1.29 1.31 1.19 1.12 1.02
0.17 0.22 0.34 0.51 0.70 0.96 1.29 1.64 1.88 2.11 2.22 2.07 2.04 2.07 2.07 2.02 2.05 2.16 2.17 2.17 2.16 2.10 2.18 2.25 2.30 2.69 2.88 2.60 2.26 1.89 1.66 1.63 1.69 1.40 1.03 0.98 1.06 1.07 1.18 1.27 1.22 1.28 1.26
0.30 0.37 0.53 0.78 1.08 1.36 1.59 1.77 1.97 2.09 2.12 2.10 2.06 2.05 1.97 1.94 1.91 1.94 1.96 2.06 2.10 2.14 2.20 2.36 2.49 2.73 2.76 2.75 2.57 2.37 2.14 1.84 1.49 1.54 1.47 1.21 1.17 1.08 1.17 1.30 1.35 1.42 1.44
0.46 0.60 0.78 0.97 1.26 1.44 1.55 1.66 1.83 1.98 2.03 2.04 2.02 2.02 2.02 1.99 1.89 1.83 1.80 1.87 2.00 2.16 2.21 2.31 2.45 2.69 2.80 2.89 2.80 2.53 2.44 2.28 1.97 1.84 1.58 1.43 1.43 1.22 1.19 1.24 1.28 1.42 1.56

GEFSSE_prec_meanprecacc_246.txt.gz
Total_Precipitation_Accumulation
2.18 2.09 3.01 3.05 2.55 2.02 1.88 1.88 1.70 1.54 1.54 1.51 1.32 1.22 1.17 1.09 0.92 0.79 0.72 0.66 0.67 0.67 0.73 0.70 0.69 0.77 0.84 0.82 0.73 0.91 0.98 0.87 0.77 0.75 0.89 1.04 1.14 1.29 1.49 1.74 2.08 2.31 2.04
1.80 1.78 2.82 3.00 2.52 2.00 1.74 1.72 1.68 1.55 1.58 1.47 1.41 1.29 1.23 1.09 0.93 0.80 0.68 0.66 0.67 0.68 0.67 0.69 0.73 0.72 0.78 0.87 0.85 0.97 0.97 0.81 0.68 0.73 1.04 1.30 1.28 1.31 1.46 1.57 1.96 2.21 2.01
1.42 1.48 2.18 2.77 2.49 2.02 1.73 1.63 1.65 1.58 1.64 1.57 1.51 1.35 1.26 1.13 1.00 0.85 0.76 0.80 0.80 0.73 0.68 0.67 0.76 0.78 0.79 0.96 0.93 0.92 0.88 0.79 0.75 0.95 1.44 2.14 1.73 1.36 1.43 1.49 1.75 1.68 1.72
1.31 1.37 1.65 2.29 2.17 1.78 1.58 1.57 1.68 1.64 1.72 1.63 1.46 1.30 1.19 1.18 1.11 1.00 0.94 1.02 0.82 0.73 0.70 0.71 0.79 0.86 0.83 0.95 0.91 0.85 0.81 0.86 1.01 1.14 1.56 2.06 2.12 1.62 1.56 1.68 1.71 1.62 1.68
1.28 1.34 1.79 2.28 2.05 1.78 1.59 1.66 1.73 1.74 1.74 1.55 1.33 1.16 1.17 1.20 1.18 1.17 1.17 1.11 0.85 0.76 0.70 0.70 0.79 0.83 0.84 0.90 0.85 0.81 0.78 0.90 1.16 1.25 1.53 1.88 2.28 1.98 1.62 1.69 1.73 1.67 1.80
1.29 1.35 1.69 2.14 2.00 1.78 1.61 1.69 1.74 1.80 1.78 1.67 1.42 1.19 1.19 1.20 1.19 1.16 1.22 1.08 0.95 0.84 0.73 0.73 0.79 0.85 0.85 0.88 0.89 0.83 0.85 0.96 1.05 1.28 1.58 1.96 2.17 1.92 1.58 1.64 1.74 1.89 1.91
1.20 1.22 1.40 1.84 1.88 1.73 1.64 1.79 1.86 1.88 1.93 1.86 1.58 1.37 1.28 1.20 1.19 1.20 1.25 1.11 1.02 0.94 0.88 0.87 0.89 0.90 0.87 0.91 0.86 0.83 0.81 0.83 0.87 1.13 1.39 1.94 1.99 1.77 1.61 1.64 1.65 1.75 1.85
1.31 1.20 1.15 1.56 1.73 1.68 1.67 1.74 1.81 1.84 1.85 1.83 1.58 1.41 1.30 1.20 1.15 1.24 1.30 1.15 1.08 0.96 0.90 0.92 0.94 0.98 0.95 0.93 0.90 0.87 0.83 0.70 0.70 0.91 1.20 1.70 1.91 1.83 1.67 1.70 1.79 1.75 1.83
1.48 1.40 1.22 1.28 1.46 1.68 1.76 1.74 1.69 1.65 1.68 1.73 1.50 1.36 1.24 1.17 1.09 1.14 1.20 1.12 1.10 1.08 1.04 0.99 1.03 1.06 0.97 0.98 0.98 0.93 0.88 0.73 0.76 0.91 0.95 1.50 1.86 1.83 1.62 1.63 1.82 1.91 1.92
1.67 1.52 1.29 1.22 1.28 1.32 1.47 1.60 1.70 1.72 1.68 1.72 1.49 1.29 1.19 1.11 1.00 1.04 1.01 1.00 1.08 1.17 1.25 1.22 1.19 1.12 1.10 1.03 0.98 0.92 0.86 0.69 0.77 0.82 1.05 1.37 1.81 1.89 1.69 1.51 1.50 1.55 1.63
1.39 1.29 1.33 1.33 1.32 1.34 1.28 1.35 1.59 1.69 1.69 1.56 1.43 1.28 1.12 0.88 0.77 0.84 0.86 1.08 1.20 1.35 1.42 1.43 1.37 1.29 1.17 1.02 0.96 0.86 0.72 0.68 0.80 0.88 1.20 1.51 1.87 1.96 1.72 1.43 1.36 1.30 1.38
1.03 1.00 1.08 1.14 1.29 1.32 1.19 1.40 1.65 1.49 1.39 1.16 1.16 1.00 0.96 0.89 0.84 0.70 0.81 1.13 1.29 1.34 1.34 1.43 1.50 1.30 1.01 0.76 0.73 0.68 0.59 0.58 0.64 0.76 1.16 1.70 1.96 1.99 1.79 1.53 1.37 1.32 1.41
0.88 0.85 0.84 0.91 1.02 1.12 1.27 1.51 1.78 1.83 1.63 1.40 1.17 1.06 1.01 0.89 0.79 0.74 0.76 0.86 0.97 1.03 0.96 1.01 1.02 0.87 0.77 0.71 0.69 0.57 0.55 0.55 0.60 0.73 1.24 1.73 1.96 2.03 1.84 1.70 1.64 1.57 1.54
0.72 0.82 0.68 0.60 0.78 0.95 1.06 1.19 1.45 1.52 1.44 1.32 1.12 1.01 1.06 1.00 0.88 0.86 0.83 0.86 0.88 0.88 0.97 0.97 1.01 0.95 0.78 0.69 0.67 0.67 0.63 0.60 0.65 0.84 1.23 1.59 1.92 2.10 2.00 1.93 1.90 1.78 1.69
0.72 0.80 0.73 0.62 0.63 0.70 0.76 0.87 0.99 1.16 1.26 1.26 1.19 1.00 0.99 1.00 0.95 0.94 0.87 0.89 0.80 0.79 0.89 0.97 1.00 1.01 0.92 0.78 0.72 0.72 0.77 0.70 0.69 0.78 1.03 1.35 1.79 2.16 2.27 2.10 1.92 1.84 1.81
0.64 0.77 0.77 0.68 0.66 0.68 0.66 0.67 0.68 0.83 0.99 1.11 1.11 1.01 1.04 1.04 0.96 0.99 0.95 0.94 0.90 0.83 0.87 1.07 1.03 1.06 1.03 0.94 0.78 0.76 0.78 0.74 0.71 0.74 0.88 1.16 1.40 1.66 2.03 2.29 2.14 1.94 1.80
0.60 0.66 0.73 0.72 0.75 0.78 0.74 0.73 0.61 0.65 0.74 0.88 1.00 1.01 1.07 1.01 0.91 0.95 0.95 0.91 0.90 0.92 0.95 1.02 1.04 1.09 0.99 0.93 0.89 0.83 0.78 0.74 0.65 0.72 0.74 0.86 0.91 1.13 1.50 1.86 2.10 2.07 1.98
0.67 0.71 0.78 0.80 0.83 0.85 0.84 0.85 0.79 0.82 0.88 0.92 1.05 1.01 0.98 1.04 1.00 0.99 1.00 1.00 1.03 1.08 1.07 1.09 1.15 1.14 1.08 1.09 1.07 1.03 0.84 0.83 0.74 0.73 0.73 0.76 0.84 0.81 0.97 1.16 1.47 1.74 1.96
0.61 0.64 0.70 0.80 0.82 0.83 0.85 0.93 1.05 1.10 1.11 1.09 1.13 1.08 0.99 0.99 1.03 1.13 1.16 1.20 1.17 1.20 1.22 1.19 1.22 1.13 1.14 1.17 1.10 1.10 0.98 0.93 0.87 0.74 0.80 0.84 0.85 0.79 0.83 0.74 0.82 0.98 1.31
0.50 0.54 0.59 0.66 0.82 0.96 0.99 0.99 1.13 1.20 1.27 1.36 1.41 1.29 1.16 1.19 1.31 1.47 1.55 1.47 1.46 1.47 1.47 1.44 1.50 1.39 1.25 1.28 1.17 1.13 1.02 0.90 0.94 0.91 0.88 0.87 0.91 0.88 0.81 0.71 0.68 0.59 0.72
0.35 0.40 0.47 0.53 0.70 0.83 0.89 0.99 1.18 1.36 1.53 1.68 1.79 1.68 1.54 1.50 1.68 1.81 1.74 1.82 1.84 1.73 1.74 1.80 1.86 1.80 1.59 1.46 1.51 1.40 1.12 0.87 0.93 0.90 0.86 0.90 0.95 1.05 1.08 0.95 0.81 0.72 0.68
0.23 0.27 0.33 0.40 0.50 0.63 0.79 1.02 1.22 1.52 1.61 1.70 1.82 1.86 1.79 1.73 1.89 1.94 2.02 2.11 2.16 2.16 2.10 2.01 2.14 2.26 1.99 1.73 1.83 2.11 1.72 1.32 0.96 0.76 0.82 0.86 0.96 1.19 1.27 1.09 0.90 0.82 0.80
0.18 0.19 0.26 0.38 0.50 0.71 0.95 1.27 1.56 1.81 1.89 1.93 1.87 1.92 2.00 2.04 2.11 2.15 2.20 2.28 2.31 2.16 2.17 2.27 2.41 2.74 2.54 2.17 1.96 2.21 2.03 1.70 1.40 0.97 0.87 0.91 0.99 1.16 1.29 1.31 1.19 1.12 1.02
0.17 0.22 0.34 0.51 0.70 0.96 1.29 1.65 1.89 2.13 2.23 2.08 2.05 2.08 2.08 2.03 2.06 2.18 2.18 2.18 2.16 2.11 2.18 2.25 2.31 2.71 2.90 2.61 2.27 1.89 1.67 1.64 1.70 1.42 1.04 0.98 1.06 1.07 1.18 1.27 1.22 1.28 1.26
0.30 0.38 0.54 0.79 1.09 1.37 1.60 1.78 1.98 2.11 2.14 2.11 2.06 2.05 1.99 1.95 1.93 1.96 1.97 2.06 2.10 2.15 2.20 2.37 2.49 2.75 2.78 2.77 2.58 2.37 2.15 1.84 1.50 1.55 1.49 1.22 1.17 1.08 1.17 1.30 1.35 1.42 1.45
0.47 0.61 0.79 0.98 1.27 1.45 1.56 1.67 1.85 2.00 2.05 2.05 2.02 2.02 2.02 2.00 1.90 1.84 1.81 1.88 2.01 2.17 2.22 2.31 2.46 2.70 2.82 2.90 2.81 2.54 2.45 2.28 1.98 1.84 1.59 1.44 1.44 1.23 1.20 1.24 1.28 1.42 1.56

GEFSSE_prec_meanprecacc_252.txt.gz
Total_Precipitation_Accumulation
2.23 2.13 3.06 3.13 2.62 2.07 1.93 1.91 1.73 1.57 1.58 1.56 1.37 1.26 1.20 1.15 0.98 0.84 0.76 0.70 0.70 0.70 0.76 0.73 0.72 0.80 0.86 0.84 0.76 0.95 1.02 0.91 0.80 0.79 0.92 1.07 1.16 1.33 1.52 1.78 2.13 2.38 2.09
1.83 1.81 2.85 3.04 2.58 2.05 1.78 1.76 1.72 1.58 1.62 1.53 1.46 1.32 1.26 1.15 0.99 0.86 0.72 0.70 0.72 0.72 0.70 0.71 0.76 0.75 0.80 0.89 0.87 0.99 0.99 0.83 0.71 0.77 1.08 1.34 1.32 1.35 1.49 1.60 2.00 2.27 2.05
1.44 1.49 2.20 2.80 2.55 2.07 1.77 1.67 1.69 1.62 1.68 1.61 1.55 1.38 1.30 1.18 1.06 0.91 0.81 0.85 0.85 0.78 0.73 0.70 0.78 0.80 0.81 0.98 0.96 0.94 0.89 0.80 0.78 1.00 1.51 2.23 1.79 1.40 1.46 1.53 1.78 1.71 1.75
1.32 1.39 1.67 2.32 2.23 1.84 1.62 1.60 1.70 1.67 1.76 1.68 1.52 1.34 1.24 1.23 1.16 1.04 0.99 1.06 0.87 0.78 0.74 0.75 0.82 0.90 0.86 0.97 0.93 0.86 0.82 0.88 1.04 1.22 1.67 2.16 2.19 1.66 1.59 1.71 1.74 1.64 1.71
1.30 1.37 1.81 2.31 2.10 1.83 1.62 1.68 1.77 1.78 1.78 1.60 1.40 1.21 1.22 1.25 1.22 1.21 1.21 1.15 0.90 0.81 0.75 0.76 0.83 0.88 0.87 0.92 0.86 0.82 0.80 0.92 1.20 1.33 1.60 1.96 2.34 2.03 1.64 1.71 1.76 1.71 1.85
1.31 1.39 1.72 2.18 2.05 1.81 1.64 1.73 1.78 1.85 1.84 1.74 1.49 1.25 1.23 1.24 1.23 1.22 1.27 1.13 0.99 0.87 0.76 0.77 0.84 0.89 0.88 0.89 0.89 0.83 0.86 0.98 1.11 1.34 1.64 2.03 2.24 1.96 1.61 1.67 1.78 1.94 1.97
1.22 1.24 1.43 1.90 1.92 1.76 1.68 1.84 1.90 1.92 1.99 1.95 1.66 1.44 1.34 1.26 1.24 1.26 1.30 1.16 1.08 0.98 0.91 0.92 0.93 0.93 0.89 0.92 0.87 0.84 0.83 0.87 0.94 1.20 1.45 2.01 2.04 1.80 1.65 1.66 1.70 1.79 1.90
1.33 1.22 1.18 1.60 1.77 1.72 1.70 1.78 1.85 1.88 1.89 1.89 1.66 1.51 1.39 1.27 1.20 1.29 1.35 1.22 1.14 1.00 0.94 0.95 0.98 1.01 0.98 0.95 0.92 0.90 0.86 0.74 0.76 0.96 1.26 1.74 1.94 1.87 1.71 1.73 1.83 1.80 1.89
1.49 1.43 1.27 1.31 1.49 1.70 1.78 1.77 1.73 1.70 1.73 1.78 1.56 1.48 1.35 1.23 1.13 1.17 1.24 1.17 1.15 1.12 1.09 1.03 1.07 1.09 1.01 1.01 1.00 0.95 0.91 0.76 0.80 0.96 0.99 1.53 1.91 1.91 1.69 1.67 1.86 1.97 1.99
1.68 1.55 1.33 1.26 1.32 1.36 1.50 1.63 1.73 1.76 1.74 1.77 1.55 1.39 1.29 1.18 1.04 1.08 1.04 1.03 1.12 1.22 1.29 1.26 1.22 1.15 1.13 1.05 1.00 0.93 0.88 0.72 0.80 0.85 1.10 1.42 1.87 1.97 1.78 1.59 1.58 1.63 1.69
1.41 1.33 1.38 1.38 1.37 1.39 1.33 1.37 1.62 1.72 1.73 1.61 1.52 1.37 1.22 0.95 0.80 0.87 0.89 1.11 1.23 1.38 1.44 1.46 1.40 1.31 1.20 1.04 0.97 0.87 0.74 0.71 0.83 0.92 1.24 1.59 1.94 2.06 1.82 1.51 1.44 1.36 1.43
1.07 1.05 1.15 1.19 1.33 1.36 1.23 1.43 1.70 1.54 1.44 1.22 1.25 1.09 1.04 0.94 0.87 0.73 0.84 1.17 1.33 1.38 1.37 1.46 1.53 1.32 1.04 0.78 0.74 0.71 0.64 0.63 0.68 0.80 1.22 1.79 2.03 2.07 1.86 1.62 1.46 1.40 1.48
0.92 0.89 0.88 0.94 1.03 1.14 1.30 1.53 1.81 1.87 1.68 1.47 1.22 1.11 1.08 0.95 0.84 0.77 0.79 0.89 1.01 1.07 0.99 1.04 1.05 0.89 0.79 0.72 0.71 0.61 0.60 0.59 0.65 0.77 1.30 1.82 2.04 2.11 1.93 1.81 1.76 1.71 1.68
0.76 0.86 0.71 0.62 0.79 0.96 1.07 1.20 1.47 1.54 1.48 1.37 1.15 1.05 1.10 1.06 0.94 0.91 0.86 0.89 0.91 0.93 1.00 0.99 1.03 0.97 0.79 0.70 0.68 0.69 0.66 0.62 0.69 0.88 1.28 1.66 1.99 2.18 2.10 2.07 2.06 1.96 1.86
0.76 0.83 0.75 0.64 0.63 0.71 0.77 0.88 1.02 1.19 1.29 1.29 1.22 1.03 1.04 1.07 1.02 1.01 0.92 0.93 0.84 0.82 0.92 0.99 1.01 1.03 0.93 0.79 0.73 0.73 0.78 0.71 0.69 0.80 1.06 1.39 1.84 2.22 2.35 2.19 2.01 1.95 1.96
0.67 0.79 0.78 0.69 0.67 0.69 0.67 0.68 0.70 0.85 1.01 1.13 1.14 1.05 1.08 1.09 1.03 1.06 1.00 0.96 0.92 0.85 0.90 1.09 1.05 1.08 1.04 0.94 0.79 0.77 0.79 0.74 0.71 0.76 0.90 1.19 1.43 1.70 2.09 2.35 2.21 2.04 1.94
0.63 0.69 0.75 0.74 0.77 0.79 0.75 0.73 0.62 0.66 0.75 0.89 1.01 1.02 1.08 1.03 0.94 0.99 0.99 0.92 0.92 0.94 0.96 1.04 1.06 1.10 1.00 0.93 0.91 0.84 0.79 0.75 0.66 0.75 0.76 0.88 0.93 1.16 1.53 1.91 2.16 2.14 2.08
0.69 0.73 0.79 0.81 0.83 0.86 0.87 0.86 0.79 0.83 0.89 0.93 1.06 1.02 0.99 1.04 1.01 1.01 1.04 1.01 1.05 1.09 1.08 1.11 1.17 1.16 1.09 1.10 1.08 1.03 0.85 0.85 0.75 0.76 0.76 0.79 0.85 0.82 0.98 1.18 1.49 1.77 2.02
0.62 0.65 0.71 0.80 0.83 0.85 0.87 0.94 1.07 1.11 1.12 1.11 1.14 1.08 0.99 1.00 1.04 1.15 1.20 1.23 1.19 1.22 1.24 1.21 1.24 1.15 1.15 1.18 1.11 1.11 0.99 0.94 0.88 0.75 0.82 0.85 0.85 0.79 0.83 0.75 0.83 1.00 1.33
0.50 0.55 0.60 0.68 0.84 0.96 1.00 1.01 1.16 1.22 1.30 1.39 1.43 1.30 1.17 1.20 1.33 1.50 1.59 1.50 1.49 1.50 1.49 1.46 1.52 1.40 1.27 1.30 1.18 1.14 1.03 0.90 0.95 0.92 0.88 0.88 0.92 0.88 0.82 0.72 0.69 0.59 0.73
0.36 0.41 0.49 0.55 0.72 0.84 0.91 1.02 1.21 1.38 1.56 1.71 1.80 1.69 1.54 1.51 1.69 1.83 1.77 1.86 1.87 1.75 1.77 1.84 1.89 1.84 1.63 1.47 1.53 1.41 1.13 0.88 0.94 0.91 0.86 0.90 0.95 1.06 1.08 0.95 0.82 0.73 0.68
0.24 0.28 0.35 0.43 0.51 0.65 0.82 1.04 1.25 1.55 1.64 1.71 1.83 1.86 1.79 1.73 1.91 1.96 2.04 2.14 2.18 2.18 2.14 2.03 2.16 2.31 2.03 1.75 1.85 2.14 1.75 1.34 0.97 0.76 0.83 0.86 0.96 1.20 1.27 1.09 0.90 0.82 0.81
0.19 0.20 0.27 0.39 0.51 0.73 0.98 1.29 1.59 1.85 1.93 1.97 1.91 1.94 2.01 2.06 2.14 2.17 2.22 2.29 2.32 2.17 2.17 2.28 2.42 2.76 2.56 2.18 1.97 2.22 2.07 1.75 1.42 0.98 0.87 0.91 0.99 1.17 1.29 1.31 1.19 1.12 1.03
0.18 0.23 0.36 0.52 0.71 0.98 1.31 1.67 1.92 2.18 2.30 2.13 2.08 2.09 2.09 2.05 2.08 2.19 2.20 2.20 2.17 2.11 2.19 2.26 2.32 2.73 2.93 2.64 2.29 1.90 1.69 1.65 1.73 1.45 1.05 0.99 1.06 1.07 1.19 1.27 1.22 1.28 1.26
0.32 0.39 0.55 0.80 1.09 1.37 1.60 1.80 2.02 2.16 2.19 2.14 2.07 2.06 1.99 1.96 1.94 1.98 2.00 2.09 2.11 2.16 2.21 2.37 2.50 2.77 2.80 2.79 2.61 2.39 2.17 1.85 1.51 1.57 1.52 1.24 1.18 1.08 1.17 1.30 1.35 1.42 1.45
0.49 0.63 0.81 1.00 1.29 1.46 1.57 1.68 1.86 2.02 2.07 2.07 2.04 2.04 2.04 2.02 1.92 1.85 1.82 1.89 2.03 2.18 2.23 2.32 2.48 2.72 2.83 2.91 2.82 2.55 2.46 2.29 2.00 1.87 1.61 1.46 1.45 1.24 1.20 1.24 1.28 1.42 1.56

GEFSSE_prec_meanprecacc_258.txt.gz
Total_Precipitation_Accumulation
2.28 2.18 3.16 3.23 2.69 2.12 1.96 1.93 1.74 1.59 1.60 1.59 1.40 1.28 1.22 1.16 1.00 0.86 0.78 0.72 0.72 0.72 0.78 0.76 0.76 0.82 0.89 0.86 0.78 0.98 1.05 0.94 0.84 0.83 0.97 1.10 1.20 1.36 1.55 1.81 2.14 2.40 2.13
1.86 1.85 2.93 3.11 2.63 2.08 1.80 1.78 1.74 1.60 1.63 1.54 1.49 1.34 1.27 1.17 1.01 0.88 0.74 0.73 0.74 0.75 0.73 0.74 0.79 0.79 0.84 0.92 0.90 1.02 1.02 0.86 0.74 0.80 1.12 1.37 1.35 1.39 1.54 1.63 2.02 2.28 2.08
1.47 1.52 2.25 2.85 2.59 2.10 1.80 1.70 1.71 1.64 1.70 1.63 1.58 1.40 1.32 1.19 1.08 0.94 0.84 0.89 0.89 0.83 0.77 0.73 0.80 0.83 0.83 1.01 0.99 0.97 0.92 0.83 0.82 1.03 1.54 2.24 1.81 1.45 1.53 1.57 1.81 1.74 1.78
1.35 1.41 1.69 2.37 2.28 1.88 1.64 1.62 1.73 1.69 1.78 1.71 1.55 1.35 1.26 1.24 1.19 1.07 1.01 1.09 0.90 0.81 0.76 0.77 0.84 0.92 0.89 1.00 0.97 0.91 0.86 0.91 1.07 1.25 1.68 2.18 2.20 1.71 1.66 1.76 1.78 1.70 1.75
1.32 1.38 1.84 2.35 2.14 1.86 1.64 1.70 1.79 1.80 1.81 1.63 1.43 1.23 1.23 1.27 1.25 1.24 1.24 1.17 0.93 0.84 0.78 0.79 0.86 0.90 0.90 0.94 0.89 0.85 0.83 0.95 1.24 1.34 1.61 1.97 2.36 2.08 1.70 1.76 1.80 1.76 1.89
1.33 1.41 1.76 2.22 2.08 1.85 1.67 1.76 1.81 1.87 1.88 1.77 1.52 1.27 1.25 1.26 1.25 1.24 1.29 1.14 1.01 0.90 0.80 0.81 0.87 0.91 0.90 0.91 0.92 0.86 0.89 1.01 1.13 1.35 1.65 2.04 2.26 2.02 1.66 1.71 1.82 1.98 2.02
1.23 1.26 1.46 1.95 1.96 1.80 1.72 1.88 1.93 1.95 2.02 1.99 1.70 1.47 1.36 1.28 1.26 1.29 1.32 1.19 1.11 1.01 0.94 0.94 0.95 0.95 0.91 0.94 0.90 0.87 0.87 0.90 0.95 1.20 1.46 2.02 2.06 1.85 1.69 1.71 1.73 1.83 1.95
1.34 1.24 1.20 1.64 1.81 1.76 1.73 1.81 1.88 1.91 1.92 1.93 1.72 1.56 1.42 1.29 1.22 1.31 1.37 1.24 1.16 1.03 0.96 0.97 1.00 1.04 1.01 0.98 0.95 0.92 0.89 0.77 0.76 0.97 1.26 1.75 1.97 1.90 1.74 1.78 1.88 1.86 1.95
1.50 1.44 1.29 1.32 1.51 1.73 1.80 1.79 1.76 1.74 1.77 1.81 1.61 1.53 1.38 1.26 1.15 1.20 1.26 1.18 1.17 1.14 1.11 1.06 1.09 1.11 1.03 1.03 1.02 0.97 0.93 0.77 0.80 0.96 0.99 1.55 1.95 1.94 1.72 1.72 1.93 2.05 2.07
1.69 1.57 1.35 1.28 1.33 1.36 1.51 1.64 1.75 1.78 1.76 1.80 1.59 1.44 1.33 1.21 1.06 1.09 1.05 1.05 1.14 1.24 1.31 1.29 1.25 1.17 1.15 1.08 1.02 0.94 0.88 0.72 0.80 0.85 1.10 1.45 1.92 2.04 1.85 1.65 1.65 1.71 1.78
1.44 1.36 1.41 1.40 1.38 1.40 1.34 1.39 1.64 1.74 1.75 1.63 1.53 1.41 1.26 0.98 0.82 0.88 0.91 1.12 1.25 1.40 1.47 1.49 1.43 1.35 1.24 1.07 0.99 0.88 0.75 0.72 0.84 0.92 1.28 1.66 2.03 2.16 1.91 1.57 1.49 1.43 1.50
1.11 1.09 1.18 1.21 1.35 1.38 1.24 1.45 1.71 1.56 1.45 1.23 1.25 1.11 1.06 0.95 0.88 0.74 0.85 1.19 1.35 1.41 1.40 1.49 1.55 1.35 1.06 0.80 0.76 0.72 0.65 0.64 0.69 0.81 1.26 1.86 2.10 2.14 1.92 1.67 1.52 1.48 1.55
0.94 0.92 0.90 0.96 1.05 1.17 1.31 1.54 1.82 1.88 1.69 1.47 1.23 1.12 1.10 0.97 0.85 0.78 0.80 0.91 1.04 1.09 1.00 1.05 1.05 0.90 0.79 0.73 0.72 0.62 0.61 0.60 0.67 0.78 1.35 1.87 2.09 2.15 1.98 1.86 1.82 1.80 1.79
0.78 0.89 0.74 0.64 0.80 0.97 1.09 1.22 1.48 1.55 1.49 1.38 1.17 1.06 1.12 1.07 0.95 0.92 0.88 0.92 0.94 0.95 1.01 1.00 1.04 0.97 0.80 0.71 0.69 0.70 0.67 0.64 0.70 0.89 1.32 1.71 2.04 2.23 2.16 2.14 2.15 2.06 2.04
0.78 0.86 0.77 0.65 0.64 0.72 0.79 0.89 1.03 1.20 1.29 1.30 1.23 1.04 1.05 1.08 1.04 1.03 0.96 0.98 0.88 0.83 0.92 0.99 1.02 1.04 0.93 0.79 0.74 0.73 0.78 0.72 0.70 0.82 1.08 1.42 1.87 2.27 2.41 2.27 2.10 2.03 2.09
0.68 0.81 0.80 0.70 0.68 0.70 0.67 0.68 0.71 0.86 1.01 1.14 1.14 1.06 1.10 1.11 1.06 1.10 1.05 1.00 0.94 0.86 0.90 1.09 1.06 1.08 1.04 0.95 0.80 0.78 0.79 0.75 0.72 0.77 0.92 1.21 1.47 1.75 2.14 2.42 2.27 2.09 1.99
0.64 0.71 0.77 0.75 0.77 0.80 0.76 0.74 0.62 0.67 0.76 0.89 1.02 1.05 1.12 1.07 0.98 1.02 1.02 0.95 0.93 0.95 0.97 1.04 1.07 1.11 1.01 0.94 0.91 0.84 0.80 0.76 0.68 0.77 0.78 0.89 0.94 1.17 1.55 1.93 2.20 2.20 2.13
0.71 0.76 0.82 0.82 0.85 0.87 0.88 0.87 0.80 0.84 0.90 0.94 1.07 1.04 1.02 1.07 1.03 1.01 1.05 1.03 1.06 1.10 1.09 1.12 1.18 1.17 1.10 1.10 1.09 1.04 0.86 0.85 0.76 0.77 0.77 0.79 0.85 0.82 0.98 1.19 1.51 1.81 2.06
0.64 0.69 0.75 0.83 0.85 0.86 0.89 0.95 1.08 1.12 1.13 1.11 1.15 1.10 1.00 1.01 1.04 1.16 1.21 1.24 1.21 1.24 1.26 1.22 1.25 1.16 1.16 1.19 1.12 1.13 1.01 0.96 0.89 0.75 0.82 0.86 0.86 0.80 0.83 0.75 0.83 1.01 1.36
0.52 0.57 0.63 0.70 0.88 1.00 1.05 1.04 1.18 1.24 1.31 1.40 1.44 1.31 1.17 1.20 1.33 1.51 1.60 1.51 1.49 1.50 1.50 1.47 1.54 1.42 1.29 1.32 1.21 1.17 1.06 0.94 0.97 0.93 0.89 0.88 0.92 0.88 0.82 0.72 0.69 0.60 0.74
0.37 0.44 0.52 0.59 0.76 0.88 0.96 1.07 1.24 1.40 1.57 1.73 1.83 1.71 1.55 1.52 1.69 1.84 1.78 1.87 1.88 1.76 1.78 1.84 1.89 1.86 1.65 1.50 1.55 1.44 1.15 0.90 0.96 0.92 0.87 0.90 0.95 1.06 1.09 0.95 0.82 0.73 0.69
0.26 0.30 0.38 0.47 0.54 0.67 0.85 1.10 1.31 1.58 1.66 1.74 1.86 1.89 1.81 1.74 1.92 1.97 2.05 2.15 2.19 2.19 2.14 2.04 2.17 2.32 2.04 1.77 1.88 2.16 1.77 1.36 0.98 0.77 0.83 0.87 0.96 1.20 1.27 1.09 0.90 0.82 0.81
0.21 0.22 0.30 0.42 0.54 0.76 1.00 1.33 1.62 1.88 1.96 2.00 1.94 1.96 2.02 2.07 2.16 2.19 2.23 2.30 2.32 2.17 2.18 2.29 2.43 2.77 2.57 2.19 1.98 2.24 2.08 1.76 1.43 0.99 0.88 0.92 1.00 1.17 1.29 1.31 1.19 1.12 1.03
0.21 0.26 0.38 0.56 0.75 1.00 1.33 1.70 1.96 2.21 2.33 2.16 2.10 2.11 2.10 2.07 2.12 2.23 2.22 2.21 2.19 2.12 2.19 2.26 2.32 2.73 2.93 2.64 2.30 1.91 1.70 1.66 1.73 1.45 1.06 0.99 1.07 1.07 1.19 1.27 1.22 1.28 1.26
0.35 0.43 0.59 0.86 1.16 1.42 1.64 1.83 2.05 2.19 2.22 2.17 2.09 2.07 2.01 1.99 1.97 2.00 2.01 2.10 2.12 2.16 2.22 2.38 2.51 2.78 2.80 2.80 2.62 2.40 2.18 1.86 1.51 1.58 1.52 1.25 1.18 1.08 1.17 1.30 1.35 1.42 1.45
0.52 0.67 0.85 1.05 1.34 1.52 1.63 1.72 1.90 2.04 2.09 2.08 2.05 2.05 2.05 2.02 1.93 1.86 1.83 1.91 2.04 2.19 2.23 2.33 2.49 2.73 2.84 2.92 2.83 2.56 2.47 2.30 2.01 1.88 1.61 1.46 1.46 1.24 1.20 1.24 1.29 1.42 1.56

GEFSSE_prec_meanprecacc_264.txt.gz
Total_Precipitation_Accumulation
2.30 2.24 3.30 3.39 2.81 2.21 2.01 1.96 1.76 1.61 1.62 1.62 1.44 1.32 1.25 1.18 1.01 0.87 0.79 0.74 0.73 0.74 0.79 0.78 0.78 0.84 0.90 0.88 0.81 1.01 1.09 1.01 0.93 0.91 1.04 1.17 1.25 1.41 1.60 1.84 2.17 2.44 2.18
1.91 1.92 3.07 3.24 2.73 2.16 1.85 1.82 1.77 1.63 1.67 1.57 1.54 1.40 1.32 1.19 1.04 0.90 0.77 0.76 0.77 0.78 0.75 0.77 0.81 0.80 0.86 0.94 0.93 1.06 1.08 0.94 0.82 0.88 1.17 1.41 1.39 1.43 1.57 1.67 2.06 2.33 2.12
1.51 1.58 2.33 2.94 2.66 2.18 1.87 1.74 1.75 1.68 1.75 1.67 1.65 1.45 1.35 1.23 1.12 0.96 0.87 0.93 0.93 0.85 0.80 0.75 0.83 0.85 0.86 1.04 1.03 1.01 0.96 0.87 0.85 1.06 1.56 2.26 1.84 1.49 1.57 1.63 1.88 1.80 1.82
1.39 1.46 1.76 2.43 2.34 1.95 1.72 1.69 1.77 1.75 1.84 1.76 1.61 1.40 1.30 1.30 1.24 1.11 1.03 1.12 0.95 0.84 0.79 0.79 0.86 0.95 0.92 1.04 1.01 0.94 0.88 0.93 1.09 1.26 1.69 2.19 2.22 1.75 1.71 1.83 1.84 1.74 1.79
1.36 1.43 1.91 2.43 2.21 1.92 1.70 1.77 1.85 1.86 1.87 1.69 1.48 1.28 1.28 1.31 1.30 1.27 1.25 1.20 0.97 0.89 0.81 0.81 0.88 0.92 0.92 0.97 0.92 0.89 0.86 0.98 1.26 1.35 1.61 1.98 2.37 2.14 1.74 1.80 1.85 1.82 1.96
1.37 1.45 1.82 2.29 2.15 1.92 1.73 1.82 1.88 1.95 1.95 1.84 1.57 1.31 1.28 1.29 1.28 1.25 1.30 1.16 1.03 0.93 0.83 0.82 0.89 0.93 0.92 0.94 0.95 0.90 0.92 1.04 1.15 1.36 1.65 2.05 2.27 2.06 1.70 1.74 1.86 2.03 2.08
1.26 1.28 1.50 2.04 2.07 1.89 1.79 1.96 2.00 2.04 2.11 2.05 1.74 1.51 1.39 1.31 1.29 1.32 1.35 1.21 1.14 1.05 0.98 0.96 0.97 0.96 0.93 0.97 0.94 0.90 0.91 0.93 0.96 1.21 1.47 2.02 2.08 1.89 1.73 1.74 1.77 1.88 2.01
1.35 1.27 1.24 1.72 1.91 1.84 1.81 1.89 1.94 1.96 1.99 2.01 1.79 1.61 1.46 1.32 1.25 1.35 1.41 1.27 1.19 1.06 1.00 1.00 1.02 1.05 1.03 1.02 0.99 0.95 0.93 0.79 0.76 0.97 1.27 1.76 2.00 1.94 1.78 1.83 1.93 1.91 2.03
1.52 1.46 1.30 1.35 1.56 1.79 1.86 1.85 1.83 1.80 1.82 1.89 1.68 1.58 1.43 1.31 1.19 1.24 1.30 1.22 1.20 1.17 1.15 1.10 1.12 1.14 1.05 1.06 1.05 1.00 0.97 0.80 0.81 0.97 1.00 1.57 2.00 2.01 1.77 1.77 1.99 2.11 2.13
1.71 1.58 1.36 1.29 1.34 1.40 1.56 1.71 1.83 1.85 1.82 1.85 1.64 1.49 1.38 1.27 1.11 1.13 1.09 1.08 1.19 1.28 1.35 1.33 1.30 1.22 1.20 1.12 1.05 0.97 0.91 0.73 0.81 0.87 1.13 1.49 1.99 2.11 1.90 1.70 1.69 1.78 1.84
1.46 1.38 1.43 1.42 1.40 1.41 1.36 1.43 1.69 1.80 1.80 1.68 1.59 1.48 1.31 1.01 0.85 0.91 0.93 1.17 1.30 1.44 1.51 1.53 1.48 1.41 1.29 1.11 1.03 0.91 0.76 0.72 0.84 0.94 1.30 1.71 2.10 2.23 1.98 1.62 1.54 1.48 1.56
1.15 1.13 1.22 1.23 1.36 1.40 1.26 1.47 1.74 1.59 1.49 1.26 1.27 1.13 1.09 0.98 0.91 0.76 0.88 1.23 1.38 1.44 1.44 1.52 1.59 1.39 1.10 0.83 0.79 0.74 0.66 0.64 0.70 0.82 1.29 1.91 2.17 2.21 1.97 1.71 1.58 1.56 1.63
0.97 0.95 0.94 0.98 1.06 1.18 1.33 1.57 1.85 1.91 1.71 1.49 1.24 1.14 1.12 1.00 0.88 0.80 0.81 0.94 1.06 1.12 1.02 1.07 1.08 0.93 0.83 0.77 0.76 0.66 0.64 0.62 0.67 0.80 1.40 1.94 2.16 2.23 2.04 1.92 1.89 1.89 1.89
0.81 0.92 0.77 0.66 0.82 0.98 1.11 1.23 1.50 1.57 1.52 1.39 1.17 1.07 1.14 1.09 0.97 0.95 0.90 0.93 0.96 0.98 1.03 1.01 1.05 0.99 0.82 0.74 0.73 0.75 0.72 0.67 0.72 0.90 1.37 1.79 2.14 2.31 2.24 2.23 2.23 2.15 2.18
0.81 0.89 0.80 0.67 0.66 0.73 0.80 0.90 1.05 1.22 1.31 1.31 1.24 1.05 1.05 1.10 1.06 1.07 1.00 1.01 0.91 0.88 0.95 1.00 1.03 1.05 0.95 0.81 0.76 0.76 0.80 0.74 0.71 0.83 1.10 1.49 1.96 2.36 2.51 2.37 2.20 2.14 2.20
0.70 0.83 0.82 0.72 0.70 0.72 0.69 0.69 0.71 0.86 1.02 1.15 1.15 1.07 1.11 1.13 1.09 1.14 1.10 1.05 0.99 0.90 0.93 1.11 1.08 1.10 1.07 0.98 0.82 0.80 0.80 0.76 0.72 0.78 0.93 1.25 1.52 1.81 2.21 2.50 2.36 2.18 2.05
0.66 0.73 0.79 0.77 0.80 0.83 0.78 0.76 0.63 0.68 0.77 0.91 1.04 1.06 1.14 1.09 1.01 1.07 1.08 1.02 0.99 0.99 1.01 1.07 1.09 1.13 1.03 0.96 0.92 0.86 0.82 0.78 0.69 0.78 0.79 0.90 0.96 1.19 1.58 1.99 2.28 2.28 2.21
0.73 0.79 0.84 0.84 0.87 0.90 0.92 0.90 0.82 0.86 0.92 0.97 1.10 1.06 1.05 1.12 1.08 1.06 1.10 1.09 1.11 1.14 1.12 1.14 1.20 1.18 1.11 1.12 1.10 1.05 0.88 0.87 0.78 0.79 0.79 0.80 0.86 0.83 1.00 1.23 1.59 1.90 2.16
0.67 0.72 0.78 0.84 0.86 0.89 0.93 1.01 1.12 1.15 1.15 1.14 1.19 1.13 1.04 1.07 1.13 1.23 1.27 1.28 1.25 1.27 1.27 1.24 1.27 1.17 1.18 1.20 1.13 1.14 1.03 0.98 0.91 0.77 0.84 0.87 0.87 0.80 0.84 0.76 0.87 1.07 1.42
0.55 0.60 0.67 0.75 0.91 1.03 1.08 1.08 1.23 1.27 1.35 1.44 1.48 1.34 1.20 1.24 1.37 1.56 1.65 1.54 1.51 1.52 1.51 1.47 1.54 1.43 1.30 1.33 1.23 1.19 1.09 0.97 1.00 0.95 0.91 0.90 0.94 0.90 0.83 0.72 0.69 0.61 0.77
0.43 0.48 0.56 0.64 0.81 0.91 0.97 1.09 1.27 1.44 1.60 1.76 1.85 1.73 1.57 1.54 1.73 1.87 1.80 1.88 1.89 1.77 1.78 1.85 1.90 1.86 1.66 1.51 1.57 1.47 1.18 0.93 0.99 0.96 0.90 0.93 0.98 1.08 1.10 0.96 0.82 0.73 0.70
0.28 0.33 0.41 0.50 0.57 0.69 0.87 1.12 1.33 1.60 1.68 1.77 1.88 1.92 1.83 1.77 1.96 2.00 2.07 2.17 2.19 2.19 2.14 2.04 2.17 2.32 2.04 1.78 1.88 2.18 1.80 1.39 1.00 0.80 0.86 0.90 1.00 1.22 1.29 1.10 0.91 0.83 0.81
0.23 0.24 0.32 0.43 0.56 0.79 1.02 1.34 1.63 1.89 1.97 2.02 1.96 1.99 2.04 2.09 2.18 2.22 2.27 2.33 2.34 2.18 2.18 2.29 2.44 2.78 2.58 2.20 1.98 2.24 2.10 1.78 1.45 1.00 0.90 0.94 1.03 1.19 1.31 1.32 1.20 1.12 1.03
0.23 0.28 0.40 0.58 0.77 1.03 1.35 1.72 1.98 2.22 2.34 2.18 2.12 2.13 2.12 2.09 2.14 2.26 2.25 2.24 2.21 2.15 2.21 2.28 2.33 2.76 2.95 2.65 2.30 1.92 1.71 1.67 1.75 1.47 1.07 1.00 1.07 1.08 1.20 1.28 1.22 1.28 1.27
0.36 0.45 0.62 0.89 1.19 1.45 1.68 1.86 2.08 2.22 2.24 2.19 2.11 2.10 2.04 2.01 2.00 2.02 2.02 2.11 2.14 2.18 2.24 2.40 2.52 2.79 2.81 2.80 2.62 2.41 2.19 1.87 1.53 1.59 1.54 1.26 1.19 1.09 1.17 1.30 1.35 1.42 1.45
0.54 0.69 0.87 1.07 1.37 1.56 1.68 1.78 1.94 2.09 2.13 2.11 2.09 2.07 2.08 2.05 1.95 1.88 1.84 1.92 2.05 2.19 2.25 2.34 2.50 2.74 2.85 2.92 2.83 2.56 2.47 2.31 2.01 1.89 1.63 1.48 1.46 1.24 1.20 1.25 1.29 1.42 1.56

GEFSSE_prec_meanprecacc_270.txt.gz
Total_Precipitation_Accumulation
2.33 2.27 3.38 3.50 2.91 2.29 2.09 2.01 1.79 1.64 1.65 1.65 1.47 1.35 1.29 1.22 1.05 0.91 0.83 0.77 0.75 0.76 0.82 0.81 0.81 0.88 0.95 0.91 0.83 1.04 1.13 1.07 1.00 0.98 1.10 1.23 1.31 1.46 1.67 1.91 2.23 2.50 2.24
1.94 1.96 3.13 3.33 2.81 2.23 1.93 1.87 1.80 1.66 1.70 1.61 1.59 1.46 1.37 1.23 1.06 0.93 0.79 0.78 0.79 0.80 0.77 0.80 0.84 0.83 0.90 0.98 0.96 1.10 1.13 0.99 0.91 0.98 1.27 1.49 1.44 1.48 1.64 1.73 2.11 2.38 2.17
1.53 1.61 2.39 3.04 2.76 2.27 1.95 1.80 1.79 1.72 1.79 1.72 1.71 1.52 1.41 1.30 1.19 1.02 0.92 0.99 0.96 0.89 0.83 0.79 0.87 0.89 0.90 1.08 1.06 1.05 1.01 0.97 0.95 1.13 1.64 2.35 1.91 1.55 1.65 1.71 1.95 1.88 1.89
1.41 1.50 1.83 2.54 2.43 2.02 1.81 1.77 1.84 1.81 1.91 1.83 1.69 1.46 1.35 1.35 1.30 1.15 1.07 1.16 1.00 0.88 0.83 0.83 0.90 0.99 0.96 1.08 1.05 0.98 0.91 0.96 1.13 1.29 1.72 2.23 2.29 1.84 1.80 1.91 1.93 1.83 1.87
1.38 1.48 2.00 2.54 2.28 1.98 1.77 1.85 1.92 1.92 1.95 1.77 1.55 1.32 1.33 1.36 1.34 1.31 1.28 1.23 1.00 0.92 0.85 0.85 0.92 0.95 0.96 1.00 0.96 0.95 0.91 1.02 1.30 1.36 1.63 2.00 2.42 2.22 1.82 1.86 1.93 1.92 2.05
1.39 1.49 1.89 2.38 2.21 1.97 1.78 1.88 1.95 2.03 2.03 1.90 1.63 1.35 1.32 1.33 1.31 1.28 1.32 1.19 1.06 0.97 0.88 0.87 0.91 0.95 0.95 0.97 0.99 0.96 0.99 1.10 1.17 1.37 1.67 2.07 2.30 2.12 1.76 1.80 1.93 2.12 2.15
1.27 1.31 1.54 2.10 2.12 1.95 1.86 2.06 2.11 2.13 2.17 2.11 1.79 1.56 1.43 1.35 1.32 1.35 1.38 1.24 1.16 1.08 1.02 1.00 1.00 1.00 0.97 1.02 0.99 0.95 0.95 0.97 0.98 1.23 1.49 2.06 2.13 1.95 1.78 1.79 1.82 1.92 2.06
1.37 1.29 1.27 1.82 2.02 1.96 1.97 2.06 2.08 2.09 2.09 2.09 1.86 1.68 1.52 1.38 1.31 1.41 1.46 1.30 1.22 1.09 1.04 1.05 1.08 1.12 1.09 1.07 1.04 0.99 0.96 0.81 0.78 0.99 1.29 1.79 2.05 2.00 1.84 1.90 1.99 1.96 2.08
1.53 1.47 1.32 1.43 1.69 1.95 2.01 1.93 1.91 1.89 1.92 2.00 1.78 1.65 1.49 1.36 1.25 1.31 1.36 1.26 1.23 1.21 1.19 1.16 1.23 1.23 1.11 1.11 1.10 1.04 0.99 0.82 0.83 0.99 1.01 1.59 2.04 2.05 1.83 1.84 2.06 2.18 2.20
1.72 1.59 1.38 1.32 1.39 1.46 1.64 1.80 1.92 1.94 1.92 1.97 1.74 1.56 1.44 1.32 1.18 1.21 1.16 1.16 1.26 1.33 1.40 1.40 1.40 1.33 1.28 1.18 1.09 1.00 0.93 0.75 0.83 0.88 1.15 1.53 2.04 2.16 1.96 1.76 1.75 1.83 1.91
1.48 1.40 1.45 1.44 1.44 1.47 1.42 1.49 1.76 1.87 1.88 1.76 1.68 1.57 1.38 1.08 0.93 0.99 1.00 1.24 1.37 1.48 1.56 1.59 1.55 1.52 1.37 1.17 1.07 0.93 0.77 0.73 0.85 0.95 1.33 1.76 2.14 2.30 2.06 1.69 1.60 1.56 1.64
1.17 1.15 1.24 1.26 1.38 1.42 1.29 1.50 1.77 1.63 1.54 1.30 1.32 1.19 1.17 1.07 0.98 0.82 0.95 1.30 1.44 1.48 1.48 1.55 1.63 1.46 1.17 0.87 0.82 0.76 0.68 0.66 0.70 0.84 1.32 1.97 2.24 2.29 2.04 1.79 1.67 1.65 1.72
0.99 0.98 0.96 1.00 1.07 1.19 1.35 1.59 1.88 1.94 1.75 1.53 1.27 1.18 1.18 1.07 0.95 0.87 0.87 1.00 1.12 1.15 1.04 1.08 1.11 0.99 0.90 0.80 0.79 0.68 0.66 0.64 0.69 0.82 1.43 2.00 2.25 2.32 2.13 2.00 1.97 1.97 1.98
0.84 0.95 0.79 0.68 0.83 1.00 1.13 1.25 1.52 1.59 1.53 1.41 1.19 1.10 1.18 1.15 1.01 0.99 0.97 1.00 1.01 1.00 1.04 1.03 1.07 1.04 0.86 0.76 0.75 0.78 0.75 0.70 0.76 0.97 1.43 1.87 2.24 2.44 2.37 2.32 2.32 2.23 2.27
0.82 0.90 0.81 0.70 0.68 0.75 0.82 0.92 1.07 1.24 1.32 1.33 1.26 1.08 1.09 1.14 1.09 1.09 1.04 1.06 0.95 0.90 0.97 1.02 1.05 1.08 0.98 0.84 0.78 0.78 0.84 0.78 0.76 0.91 1.20 1.59 2.08 2.49 2.64 2.54 2.33 2.23 2.27
0.71 0.84 0.83 0.74 0.71 0.73 0.70 0.71 0.73 0.88 1.05 1.17 1.20 1.10 1.12 1.16 1.12 1.18 1.13 1.08 1.02 0.93 0.96 1.14 1.09 1.12 1.10 1.02 0.85 0.82 0.82 0.78 0.75 0.81 0.97 1.29 1.59 1.90 2.31 2.62 2.49 2.27 2.12
0.67 0.74 0.80 0.79 0.82 0.83 0.79 0.77 0.65 0.70 0.80 0.95 1.08 1.08 1.15 1.11 1.05 1.11 1.12 1.06 1.04 1.04 1.05 1.10 1.11 1.16 1.07 0.99 0.95 0.87 0.83 0.79 0.71 0.79 0.80 0.92 0.99 1.24 1.66 2.09 2.39 2.38 2.28
0.75 0.80 0.85 0.85 0.88 0.91 0.93 0.92 0.84 0.88 0.95 1.00 1.14 1.10 1.08 1.15 1.12 1.11 1.14 1.12 1.15 1.19 1.17 1.19 1.24 1.22 1.15 1.14 1.11 1.06 0.88 0.88 0.79 0.81 0.80 0.82 0.88 0.86 1.05 1.31 1.65 1.97 2.23
0.69 0.74 0.79 0.86 0.88 0.90 0.94 1.02 1.14 1.19 1.19 1.18 1.23 1.17 1.10 1.13 1.19 1.30 1.33 1.35 1.31 1.33 1.32 1.28 1.31 1.21 1.20 1.21 1.14 1.14 1.03 0.99 0.92 0.79 0.86 0.88 0.88 0.82 0.87 0.82 0.92 1.12 1.47
0.58 0.63 0.70 0.79 0.95 1.06 1.12 1.12 1.28 1.32 1.39 1.47 1.50 1.36 1.23 1.28 1.41 1.60 1.69 1.59 1.56 1.56 1.55 1.51 1.56 1.44 1.31 1.33 1.23 1.19 1.10 0.97 1.01 0.96 0.92 0.92 0.96 0.92 0.85 0.74 0.71 0.64 0.81
0.46 0.51 0.59 0.68 0.86 0.96 1.01 1.12 1.31 1.47 1.64 1.79 1.88 1.76 1.59 1.56 1.74 1.88 1.81 1.89 1.90 1.78 1.80 1.87 1.91 1.87 1.66 1.51 1.57 1.47 1.18 0.93 0.99 0.96 0.91 0.95 1.00 1.10 1.12 0.98 0.84 0.75 0.72
0.30 0.34 0.42 0.52 0.60 0.75 0.91 1.16 1.36 1.64 1.71 1.80 1.92 1.96 1.87 1.80 1.99 2.02 2.08 2.18 2.20 2.20 2.15 2.05 2.18 2.32 2.04 1.78 1.88 2.18 1.80 1.39 1.01 0.80 0.87 0.91 1.01 1.24 1.31 1.12 0.93 0.86 0.83
0.23 0.24 0.32 0.44 0.57 0.80 1.04 1.37 1.66 1.92 2.00 2.06 2.00 2.02 2.08 2.12 2.20 2.24 2.28 2.34 2.36 2.19 2.19 2.30 2.44 2.79 2.59 2.20 1.98 2.25 2.10 1.79 1.45 1.01 0.90 0.94 1.03 1.20 1.32 1.34 1.22 1.15 1.05
0.23 0.28 0.40 0.58 0.78 1.04 1.36 1.75 2.02 2.26 2.38 2.22 2.16 2.16 2.15 2.11 2.15 2.27 2.27 2.25 2.23 2.16 2.22 2.28 2.34 2.77 2.97 2.67 2.31 1.92 1.71 1.68 1.75 1.47 1.07 1.00 1.08 1.09 1.20 1.29 1.23 1.29 1.28
0.37 0.45 0.62 0.89 1.19 1.46 1.69 1.88 2.11 2.25 2.27 2.22 2.15 2.14 2.06 2.02 2.01 2.03 2.03 2.13 2.16 2.20 2.26 2.41 2.54 2.81 2.83 2.82 2.63 2.41 2.19 1.87 1.53 1.60 1.54 1.26 1.19 1.09 1.18 1.31 1.35 1.43 1.46
0.54 0.69 0.88 1.08 1.38 1.56 1.69 1.79 1.95 2.10 2.16 2.15 2.12 2.12 2.13 2.09 1.99 1.91 1.86 1.93 2.06 2.21 2.26 2.36 2.52 2.76 2.86 2.94 2.84 2.57 2.48 2.32 2.02 1.90 1.63 1.48 1.47 1.25 1.21 1.25 1.29 1.42 1.57

GEFSSE_prec_meanprecacc_276.txt.gz
Total_Precipitation_Accumulation
2.41 2.32 3.41 3.54 2.95 2.33 2.13 2.07 1.86 1.69 1.69 1.70 1.51 1.40 1.32 1.27 1.08 0.94 0.86 0.79 0.77 0.78 0.85 0.84 0.86 0.94 0.99 0.94 0.87 1.09 1.17 1.11 1.03 1.04 1.17 1.30 1.38 1.51 1.73 1.99 2.34 2.63 2.33
2.00 1.99 3.16 3.37 2.85 2.27 1.96 1.92 1.85 1.71 1.75 1.66 1.62 1.51 1.42 1.28 1.11 0.98 0.83 0.81 0.82 0.82 0.81 0.84 0.89 0.89 0.95 1.01 1.00 1.15 1.18 1.04 0.97 1.07 1.37 1.57 1.51 1.53 1.69 1.79 2.21 2.51 2.24
1.55 1.64 2.42 3.08 2.80 2.30 1.99 1.85 1.84 1.77 1.84 1.77 1.75 1.58 1.46 1.35 1.23 1.08 0.98 1.03 1.01 0.92 0.86 0.83 0.91 0.94 0.95 1.12 1.11 1.10 1.06 1.03 1.03 1.23 1.75 2.47 2.01 1.63 1.72 1.78 2.03 1.96 1.97
1.43 1.52 1.86 2.57 2.47 2.06 1.86 1.84 1.90 1.86 1.97 1.89 1.74 1.51 1.41 1.40 1.34 1.19 1.10 1.21 1.04 0.92 0.88 0.88 0.94 1.04 1.01 1.12 1.10 1.02 0.96 1.02 1.19 1.38 1.84 2.38 2.43 1.93 1.88 1.98 1.98 1.90 1.95
1.41 1.50 2.02 2.57 2.30 2.01 1.83 1.95 2.04 2.02 2.02 1.84 1.60 1.39 1.39 1.42 1.39 1.34 1.32 1.28 1.05 0.96 0.90 0.89 0.95 0.99 0.99 1.03 1.00 1.00 0.97 1.11 1.40 1.44 1.68 2.08 2.52 2.30 1.88 1.93 1.98 1.98 2.13
1.43 1.52 1.90 2.40 2.23 2.01 1.82 1.94 2.03 2.10 2.09 1.96 1.68 1.42 1.39 1.40 1.36 1.33 1.37 1.23 1.10 1.00 0.91 0.89 0.93 0.97 0.97 0.99 1.02 1.02 1.10 1.28 1.34 1.46 1.74 2.14 2.38 2.18 1.80 1.84 1.99 2.20 2.20
1.30 1.33 1.55 2.12 2.16 1.99 1.90 2.10 2.16 2.18 2.23 2.17 1.85 1.63 1.51 1.41 1.37 1.38 1.41 1.28 1.20 1.11 1.04 1.01 1.03 1.03 1.00 1.05 1.02 0.98 0.98 1.02 1.06 1.31 1.56 2.14 2.21 2.02 1.83 1.83 1.87 1.98 2.11
1.40 1.31 1.29 1.85 2.08 2.06 2.09 2.14 2.16 2.16 2.18 2.18 1.93 1.75 1.57 1.44 1.37 1.47 1.52 1.34 1.25 1.13 1.07 1.08 1.13 1.17 1.13 1.10 1.06 1.02 0.99 0.84 0.82 1.04 1.35 1.86 2.13 2.06 1.89 1.95 2.06 2.03 2.15
1.55 1.48 1.34 1.46 1.76 2.07 2.11 1.99 1.98 1.95 1.97 2.07 1.86 1.71 1.54 1.42 1.31 1.37 1.42 1.33 1.28 1.25 1.23 1.20 1.30 1.28 1.15 1.14 1.13 1.06 1.01 0.85 0.87 1.03 1.05 1.63 2.08 2.10 1.88 1.89 2.12 2.24 2.25
1.74 1.60 1.40 1.33 1.41 1.51 1.71 1.83 1.96 1.99 1.96 2.02 1.81 1.62 1.48 1.38 1.23 1.26 1.22 1.23 1.33 1.38 1.43 1.43 1.44 1.38 1.32 1.21 1.11 1.02 0.95 0.78 0.86 0.92 1.19 1.56 2.08 2.22 2.02 1.81 1.80 1.89 1.96
1.51 1.43 1.47 1.46 1.48 1.52 1.48 1.52 1.80 1.90 1.92 1.80 1.73 1.61 1.44 1.18 1.02 1.07 1.06 1.29 1.43 1.54 1.60 1.61 1.57 1.55 1.40 1.19 1.08 0.94 0.79 0.75 0.88 0.98 1.36 1.79 2.19 2.35 2.13 1.76 1.67 1.61 1.68
1.22 1.20 1.27 1.31 1.44 1.46 1.32 1.53 1.82 1.67 1.58 1.34 1.35 1.22 1.22 1.14 1.06 0.88 1.01 1.35 1.49 1.52 1.52 1.58 1.65 1.47 1.19 0.89 0.83 0.78 0.70 0.67 0.73 0.86 1.34 2.01 2.31 2.37 2.12 1.86 1.76 1.70 1.76
1.03 1.01 0.98 1.02 1.09 1.22 1.38 1.62 1.92 1.98 1.79 1.56 1.31 1.22 1.23 1.12 1.01 0.91 0.91 1.06 1.18 1.21 1.07 1.11 1.13 1.00 0.91 0.83 0.80 0.69 0.67 0.65 0.71 0.85 1.46 2.05 2.32 2.41 2.23 2.07 2.04 2.02 2.02
0.85 0.97 0.79 0.70 0.85 1.01 1.14 1.27 1.55 1.63 1.55 1.42 1.21 1.13 1.22 1.20 1.07 1.04 1.03 1.07 1.09 1.07 1.08 1.05 1.09 1.05 0.88 0.78 0.77 0.80 0.76 0.72 0.78 0.99 1.47 1.92 2.30 2.53 2.46 2.40 2.39 2.28 2.33
0.82 0.91 0.82 0.70 0.69 0.76 0.83 0.94 1.09 1.26 1.33 1.34 1.28 1.09 1.11 1.18 1.13 1.14 1.10 1.13 1.02 0.95 1.00 1.06 1.08 1.10 0.99 0.85 0.80 0.80 0.86 0.80 0.79 0.94 1.24 1.64 2.14 2.57 2.74 2.68 2.44 2.30 2.33
0.73 0.85 0.85 0.75 0.73 0.76 0.72 0.72 0.74 0.90 1.07 1.19 1.22 1.12 1.13 1.18 1.16 1.23 1.18 1.13 1.06 0.96 0.99 1.17 1.13 1.15 1.12 1.05 0.88 0.85 0.85 0.81 0.78 0.85 1.02 1.34 1.64 1.99 2.44 2.79 2.62 2.36 2.19
0.68 0.75 0.81 0.80 0.84 0.86 0.81 0.79 0.66 0.71 0.82 0.98 1.11 1.11 1.17 1.13 1.07 1.14 1.15 1.09 1.06 1.06 1.07 1.13 1.16 1.21 1.11 1.02 0.98 0.90 0.86 0.82 0.73 0.82 0.83 0.96 1.04 1.31 1.73 2.17 2.49 2.47 2.36
0.75 0.81 0.86 0.86 0.90 0.92 0.94 0.93 0.85 0.89 0.96 1.02 1.16 1.13 1.11 1.17 1.14 1.14 1.17 1.16 1.17 1.21 1.20 1.23 1.29 1.27 1.19 1.17 1.13 1.09 0.91 0.90 0.80 0.82 0.81 0.83 0.90 0.88 1.07 1.35 1.71 2.04 2.31
0.69 0.74 0.80 0.87 0.89 0.92 0.95 1.04 1.16 1.20 1.21 1.20 1.25 1.19 1.11 1.14 1.21 1.33 1.36 1.37 1.34 1.35 1.35 1.30 1.33 1.23 1.21 1.22 1.15 1.16 1.05 1.00 0.93 0.80 0.87 0.89 0.89 0.84 0.88 0.83 0.95 1.16 1.53
0.58 0.64 0.72 0.80 0.96 1.07 1.13 1.14 1.30 1.35 1.42 1.49 1.52 1.38 1.25 1.30 1.44 1.64 1.72 1.61 1.57 1.58 1.57 1.52 1.57 1.44 1.31 1.34 1.23 1.20 1.11 0.98 1.01 0.97 0.93 0.93 0.98 0.94 0.87 0.76 0.72 0.66 0.84
0.47 0.52 0.61 0.69 0.87 0.98 1.03 1.15 1.34 1.51 1.67 1.82 1.90 1.78 1.62 1.60 1.78 1.92 1.84 1.91 1.92 1.80 1.81 1.87 1.91 1.87 1.66 1.52 1.58 1.47 1.19 0.94 1.00 0.97 0.92 0.95 1.02 1.12 1.13 1.00 0.85 0.76 0.73
0.31 0.36 0.45 0.54 0.62 0.76 0.93 1.18 1.38 1.67 1.74 1.81 1.94 1.98 1.89 1.83 2.01 2.05 2.12 2.20 2.22 2.21 2.16 2.05 2.18 2.33 2.05 1.79 1.89 2.19 1.81 1.39 1.01 0.80 0.87 0.91 1.01 1.25 1.32 1.13 0.93 0.86 0.85
0.24 0.25 0.34 0.46 0.59 0.82 1.05 1.39 1.68 1.96 2.04 2.08 2.02 2.05 2.10 2.14 2.22 2.26 2.31 2.36 2.37 2.21 2.20 2.30 2.45 2.80 2.60 2.21 1.99 2.26 2.12 1.80 1.46 1.01 0.90 0.94 1.03 1.20 1.33 1.34 1.22 1.15 1.06
0.23 0.29 0.41 0.59 0.79 1.06 1.38 1.76 2.04 2.30 2.42 2.26 2.20 2.19 2.17 2.13 2.17 2.28 2.29 2.27 2.24 2.18 2.23 2.29 2.35 2.77 2.99 2.69 2.32 1.92 1.72 1.69 1.77 1.48 1.08 1.00 1.08 1.09 1.21 1.29 1.24 1.30 1.29
0.38 0.46 0.64 0.90 1.20 1.47 1.70 1.90 2.14 2.29 2.30 2.25 2.18 2.17 2.09 2.05 2.03 2.05 2.06 2.15 2.17 2.22 2.27 2.42 2.54 2.82 2.85 2.84 2.64 2.42 2.20 1.88 1.54 1.62 1.55 1.27 1.19 1.09 1.18 1.31 1.36 1.43 1.46
0.55 0.70 0.88 1.08 1.38 1.57 1.70 1.80 1.96 2.12 2.17 2.17 2.15 2.16 2.16 2.13 2.02 1.94 1.88 1.96 2.09 2.23 2.28 2.38 2.53 2.77 2.88 2.95 2.86 2.58 2.49 2.33 2.04 1.91 1.65 1.49 1.48 1.25 1.21 1.25 1.29 1.42 1.57

GEFSSE_prec_meanprecacc_282.txt.gz
Total_Precipitation_Accumulation
2.47 2.36 3.46 3.57 2.99 2.36 2.15 2.10 1.89 1.74 1.74 1.74 1.54 1.44 1.36 1.31 1.12 0.96 0.88 0.81 0.79 0.81 0.87 0.87 0.89 0.97 1.02 0.97 0.89 1.12 1.21 1.14 1.07 1.08 1.20 1.35 1.48 1.66 1.89 2.13 2.43 2.68 2.43
2.03 2.02 3.20 3.40 2.88 2.30 1.99 1.95 1.89 1.76 1.82 1.72 1.66 1.55 1.47 1.33 1.15 1.02 0.85 0.83 0.84 0.84 0.82 0.86 0.91 0.91 0.97 1.04 1.02 1.18 1.21 1.07 0.99 1.09 1.40 1.62 1.62 1.67 1.81 1.90 2.28 2.56 2.32
1.57 1.65 2.44 3.10 2.81 2.32 2.01 1.87 1.88 1.82 1.90 1.82 1.79 1.62 1.50 1.38 1.26 1.11 1.01 1.05 1.03 0.94 0.88 0.85 0.93 0.95 0.97 1.15 1.14 1.14 1.09 1.07 1.06 1.26 1.79 2.50 2.08 1.73 1.80 1.86 2.10 2.03 2.03
1.44 1.53 1.87 2.59 2.48 2.06 1.87 1.86 1.94 1.95 2.04 1.94 1.77 1.55 1.45 1.44 1.37 1.22 1.13 1.23 1.07 0.95 0.91 0.91 0.96 1.06 1.03 1.15 1.13 1.08 1.01 1.07 1.25 1.43 1.89 2.43 2.47 2.00 1.94 2.05 2.05 1.97 2.03
1.42 1.51 2.03 2.58 2.31 2.01 1.84 1.99 2.15 2.13 2.09 1.89 1.65 1.43 1.44 1.47 1.44 1.38 1.36 1.31 1.08 0.99 0.94 0.91 0.97 1.00 1.01 1.05 1.02 1.07 1.09 1.26 1.53 1.52 1.76 2.15 2.57 2.35 1.92 1.97 2.04 2.05 2.20
1.44 1.54 1.92 2.41 2.25 2.02 1.84 2.04 2.15 2.17 2.14 2.02 1.74 1.48 1.45 1.44 1.41 1.38 1.40 1.26 1.12 1.02 0.94 0.91 0.95 0.99 0.99 1.00 1.04 1.07 1.18 1.38 1.44 1.54 1.81 2.19 2.41 2.25 1.84 1.86 2.02 2.26 2.28
1.32 1.35 1.58 2.14 2.19 2.02 1.93 2.15 2.21 2.23 2.28 2.22 1.89 1.67 1.56 1.46 1.42 1.42 1.44 1.30 1.23 1.14 1.07 1.04 1.06 1.06 1.02 1.07 1.04 1.01 1.01 1.06 1.10 1.35 1.59 2.15 2.23 2.08 1.90 1.86 1.91 2.03 2.16
1.40 1.32 1.30 1.89 2.11 2.09 2.12 2.18 2.18 2.19 2.20 2.22 1.97 1.78 1.61 1.48 1.41 1.51 1.54 1.37 1.28 1.16 1.10 1.12 1.16 1.20 1.16 1.14 1.10 1.05 1.01 0.86 0.83 1.05 1.36 1.87 2.18 2.13 1.96 2.00 2.10 2.07 2.19
1.56 1.49 1.36 1.48 1.78 2.09 2.13 2.01 2.01 1.97 1.99 2.09 1.88 1.75 1.57 1.45 1.35 1.40 1.46 1.35 1.31 1.28 1.25 1.23 1.32 1.31 1.19 1.17 1.15 1.09 1.03 0.86 0.88 1.04 1.06 1.64 2.13 2.16 1.95 1.96 2.18 2.29 2.30
1.75 1.61 1.42 1.35 1.42 1.51 1.72 1.86 1.98 2.00 1.98 2.04 1.83 1.64 1.50 1.41 1.27 1.30 1.26 1.26 1.35 1.40 1.46 1.45 1.46 1.40 1.34 1.23 1.13 1.04 0.96 0.79 0.87 0.93 1.20 1.59 2.13 2.27 2.08 1.87 1.85 1.94 2.00
1.53 1.45 1.48 1.48 1.49 1.53 1.49 1.54 1.81 1.92 1.94 1.82 1.75 1.63 1.45 1.19 1.04 1.12 1.10 1.33 1.46 1.56 1.62 1.63 1.59 1.56 1.41 1.21 1.10 0.96 0.80 0.76 0.89 1.00 1.38 1.83 2.23 2.40 2.19 1.82 1.72 1.69 1.75
1.24 1.21 1.28 1.32 1.45 1.50 1.35 1.55 1.83 1.68 1.59 1.34 1.37 1.24 1.23 1.15 1.07 0.90 1.04 1.39 1.52 1.54 1.54 1.60 1.66 1.48 1.20 0.90 0.85 0.79 0.71 0.69 0.74 0.87 1.37 2.06 2.35 2.42 2.16 1.92 1.82 1.78 1.83
1.04 1.03 0.99 1.04 1.11 1.24 1.40 1.64 1.92 1.98 1.79 1.56 1.32 1.23 1.24 1.14 1.01 0.92 0.93 1.08 1.20 1.23 1.10 1.12 1.14 1.01 0.93 0.84 0.82 0.72 0.69 0.67 0.73 0.86 1.49 2.10 2.36 2.47 2.29 2.14 2.10 2.09 2.08
0.86 0.97 0.80 0.71 0.86 1.03 1.15 1.28 1.56 1.63 1.56 1.43 1.22 1.13 1.23 1.21 1.08 1.05 1.04 1.08 1.11 1.08 1.10 1.07 1.10 1.07 0.90 0.80 0.80 0.82 0.79 0.75 0.81 1.02 1.51 1.97 2.35 2.59 2.52 2.44 2.44 2.34 2.40
0.83 0.91 0.83 0.72 0.70 0.78 0.84 0.95 1.10 1.26 1.34 1.35 1.30 1.11 1.13 1.20 1.15 1.15 1.11 1.16 1.04 0.97 1.01 1.07 1.09 1.11 1.01 0.87 0.82 0.83 0.89 0.84 0.83 0.97 1.26 1.68 2.19 2.60 2.79 2.75 2.53 2.37 2.39
0.73 0.86 0.85 0.76 0.75 0.77 0.73 0.73 0.74 0.90 1.07 1.19 1.23 1.13 1.14 1.20 1.18 1.26 1.21 1.15 1.08 0.98 1.00 1.18 1.14 1.16 1.14 1.07 0.90 0.88 0.88 0.84 0.81 0.86 1.03 1.37 1.69 2.05 2.51 2.87 2.70 2.45 2.25
0.69 0.76 0.82 0.81 0.85 0.87 0.82 0.80 0.66 0.71 0.82 0.98 1.12 1.11 1.18 1.14 1.07 1.15 1.17 1.11 1.09 1.09 1.09 1.15 1.18 1.23 1.14 1.07 1.02 0.93 0.88 0.84 0.75 0.83 0.85 0.98 1.07 1.36 1.79 2.24 2.56 2.56 2.43
0.76 0.82 0.87 0.87 0.90 0.93 0.95 0.94 0.86 0.89 0.97 1.02 1.16 1.14 1.12 1.18 1.15 1.14 1.18 1.17 1.19 1.23 1.21 1.24 1.30 1.29 1.23 1.22 1.18 1.12 0.93 0.92 0.83 0.83 0.83 0.85 0.91 0.89 1.10 1.39 1.76 2.13 2.38
0.70 0.75 0.80 0.88 0.90 0.92 0.96 1.05 1.17 1.22 1.21 1.21 1.26 1.20 1.12 1.15 1.22 1.34 1.37 1.39 1.36 1.37 1.36 1.32 1.34 1.25 1.25 1.26 1.18 1.19 1.08 1.04 0.97 0.82 0.88 0.90 0.90 0.85 0.89 0.85 0.97 1.20 1.59
0.60 0.65 0.72 0.80 0.96 1.08 1.13 1.15 1.31 1.37 1.43 1.50 1.53 1.38 1.26 1.32 1.46 1.66 1.74 1.63 1.60 1.60 1.58 1.53 1.58 1.45 1.33 1.36 1.25 1.22 1.14 1.02 1.05 0.99 0.95 0.94 0.99 0.95 0.88 0.77 0.74 0.68 0.87
0.50 0.54 0.62 0.70 0.88 0.98 1.03 1.16 1.36 1.52 1.69 1.84 1.91 1.79 1.63 1.62 1.79 1.94 1.86 1.93 1.94 1.82 1.83 1.88 1.92 1.88 1.67 1.53 1.59 1.49 1.21 0.96 1.01 0.98 0.93 0.97 1.04 1.13 1.14 1.01 0.86 0.77 0.74
0.33 0.38 0.46 0.55 0.62 0.76 0.93 1.19 1.39 1.69 1.76 1.83 1.95 2.00 1.91 1.85 2.02 2.07 2.15 2.22 2.24 2.24 2.17 2.07 2.19 2.34 2.06 1.80 1.91 2.20 1.82 1.41 1.02 0.81 0.88 0.92 1.03 1.27 1.33 1.14 0.94 0.87 0.85
0.27 0.29 0.37 0.48 0.60 0.83 1.06 1.39 1.68 1.96 2.05 2.09 2.02 2.07 2.12 2.16 2.23 2.28 2.34 2.39 2.39 2.23 2.22 2.32 2.46 2.80 2.60 2.22 2.00 2.27 2.13 1.81 1.47 1.02 0.91 0.95 1.04 1.21 1.34 1.35 1.23 1.16 1.06
0.25 0.31 0.43 0.62 0.81 1.07 1.39 1.78 2.06 2.31 2.43 2.27 2.22 2.21 2.19 2.14 2.19 2.30 2.32 2.31 2.28 2.21 2.26 2.32 2.37 2.79 2.99 2.69 2.32 1.93 1.73 1.70 1.78 1.50 1.09 1.01 1.08 1.09 1.21 1.29 1.24 1.31 1.29
0.39 0.48 0.65 0.91 1.21 1.47 1.71 1.91 2.15 2.30 2.31 2.26 2.21 2.20 2.11 2.06 2.05 2.07 2.09 2.19 2.22 2.25 2.30 2.46 2.58 2.85 2.87 2.85 2.65 2.43 2.21 1.89 1.55 1.63 1.57 1.28 1.20 1.09 1.18 1.31 1.36 1.44 1.47
0.57 0.73 0.91 1.09 1.39 1.58 1.70 1.81 1.97 2.13 2.18 2.18 2.17 2.19 2.18 2.14 2.04 1.96 1.91 1.99 2.13 2.27 2.32 2.41 2.58 2.82 2.91 2.97 2.88 2.60 2.51 2.34 2.05 1.93 1.66 1.51 1.48 1.25 1.21 1.25 1.29 1.42 1.57